EW4266 Weather Reports


time (UTC)temp
C
wind
direction
speed
KPH
gust
KPH
rain 1hr
cm
rain 24hr
cm
rain mn
cm
humidity
%
barometer
mb
20260901141226 19 319 0.0 1.6 0.00 0.05 0.05 84 1017.1
20260901141146 19 319 0.0 1.6 0.00 0.05 0.05 86 1017.1
20260901141031 19 329 0.0 1.6 0.00 0.05 0.05 86 1017.1
20260901140953 18 343 0.0 1.6 0.00 0.05 0.05 87 1017.1
20260901140812 18 328 0.0 1.6 0.00 0.05 0.05 88 1017.0
20260901140726 18 292 0.0 1.6 0.00 0.05 0.05 91 1017.0
20260901140538 18 15 0.0 0.0 0.00 0.05 0.05 90 1017.0
20260901140451 18 333 0.0 0.0 0.00 0.05 0.05 90 1017.0
20260901140321 18 317 0.0 0.0 0.00 0.05 0.05 89 1017.0
20260901140246 18 329 0.0 0.0 0.00 0.05 0.05 89 1017.0
20260901140108 18 338 0.0 0.0 0.00 0.05 0.05 90 1017.0
20260901140031 18 325 0.0 0.0 0.00 0.05 0.05 90 1017.0
20260901135859 18 336 0.0 0.0 0.00 0.05 0.05 90 1016.8
20260901135821 18 330 0.0 0.0 0.00 0.05 0.05 90 1016.8
20260901135736 17 332 0.0 0.0 0.00 0.05 0.05 90 1016.8
20260901135604 17 335 0.0 0.0 0.00 0.05 0.05 89 1016.7
20260901135527 17 282 0.0 0.0 0.00 0.05 0.05 89 1016.7
20260901135328 17 282 0.0 1.6 0.00 0.05 0.05 89 1016.7
20260901135250 17 282 0.0 1.6 0.00 0.05 0.05 90 1016.6
20260901135132 17 282 0.0 1.6 0.00 0.05 0.05 90 1016.6
20260901135059 17 282 0.0 1.6 0.00 0.05 0.05 91 1016.6
20260901134840 17 282 0.0 3.2 0.00 0.05 0.05 89 1016.6
20260901134802 17 282 0.0 3.2 0.00 0.05 0.05 89 1016.6
20260901134704 17 323 0.0 3.2 0.00 0.05 0.05 90 1016.6
20260901134627 17 342 0.0 4.8 0.00 0.05 0.05 90 1016.6
20260901134428 17 347 0.0 6.4 0.00 0.05 0.05 91 1016.7
20260901134330 17 347 0.0 6.4 0.00 0.05 0.05 91 1016.8
20260901134233 17 347 0.0 6.4 0.00 0.05 0.05 90 1016.8
20260901134133 17 347 0.0 6.4 0.00 0.05 0.05 90 1016.9
20260901134059 17 347 0.0 6.4 0.00 0.05 0.05 88 1016.9
20260901133942 17 347 1.6 6.4 0.00 0.05 0.05 90 1016.9
20260901133842 17 347 1.6 6.4 0.00 0.05 0.05 91 1016.9
20260901133755 17 345 4.8 6.4 0.00 0.05 0.05 91 1017.0
20260901133716 17 344 4.8 6.4 0.00 0.05 0.05 92 1017.0
20260901133454 17 331 4.8 6.4 0.00 0.05 0.05 92 1017.1
20260901133420 17 339 3.2 6.4 0.00 0.05 0.05 92 1017.1
20260901133228 17 321 3.2 4.8 0.00 0.05 0.05 91 1017.1
20260901133143 17 321 3.2 4.8 0.00 0.05 0.05 90 1017.1
20260901133013 17 355 1.6 3.2 0.00 0.05 0.05 92 1017.2
20260901132936 17 355 1.6 3.2 0.00 0.05 0.05 92 1017.2
20260901132723 17 187 0.0 3.2 0.00 0.05 0.05 91 1017.2
20260901132645 17 187 0.0 3.2 0.00 0.05 0.05 91 1017.2
20260901132549 17 187 0.0 3.2 0.00 0.05 0.05 91 1017.2
20260901132510 17 187 0.0 4.8 0.00 0.05 0.05 91 1017.2
20260901132340 16 187 0.0 4.8 0.00 0.05 0.05 92 1017.2
20260901132233 16 187 1.6 4.8 0.00 0.05 0.05 92 1017.2
20260901132042 16 187 1.6 4.8 0.00 0.05 0.05 92 1017.1
20260901131936 16 187 1.6 4.8 0.00 0.05 0.05 92 1017.1
20260901131824 16 187 1.6 4.8 0.00 0.05 0.05 92 1017.1
20260901131745 16 187 3.2 4.8 0.00 0.05 0.05 92 1017.2
20260901131706 16 187 3.2 4.8 0.00 0.05 0.05 92 1017.2
20260901131609 16 200 3.2 4.8 0.00 0.05 0.05 92 1017.2
20260901131531 16 200 3.2 4.8 0.00 0.05 0.05 92 1017.2
20260901131334 16 194 1.6 4.8 0.00 0.05 0.05 92 1017.2
20260901131236 16 194 1.6 4.8 0.00 0.05 0.05 92 1017.2
20260901131137 16 194 1.6 4.8 0.00 0.05 0.05 92 1017.2
20260901131058 16 194 1.6 4.8 0.00 0.05 0.05 92 1017.2
20260901131019 16 194 0.0 4.8 0.00 0.05 0.05 92 1017.2
20260901130919 16 220 0.0 1.6 0.00 0.05 0.05 92 1017.3
20260901130838 16 274 0.0 1.6 0.00 0.05 0.05 92 1017.3
20260901130627 16 274 0.0 3.2 0.00 0.05 0.05 94 1017.4
20260901130543 16 274 0.0 3.2 0.00 0.05 0.05 94 1017.5
20260901130413 16 274 0.0 3.2 0.00 0.05 0.05 94 1017.5
20260901130335 16 274 0.0 3.2 0.00 0.05 0.05 94 1017.5
20260901130140 16 274 0.0 4.8 0.00 0.05 0.05 94 1017.5
20260901130100 16 274 0.0 4.8 0.00 0.05 0.05 94 1017.5
20260901130003 16 274 0.0 4.8 0.00 0.05 0.05 94 1017.5
20260901125925 16 274 0.0 4.8 0.00 0.05 0.05 94 1017.5
20260901125745 16 274 0.0 6.4 0.00 0.05 0.05 95 1017.5
20260901125645 16 179 0.0 6.4 0.00 0.05 0.05 95 1017.4
20260901125552 16 179 1.6 6.4 0.00 0.05 0.05 95 1017.4
20260901125515 16 179 1.6 6.4 0.00 0.05 0.05 95 1017.3
20260901125345 16 179 3.2 6.4 0.00 0.05 0.05 94 1017.3
20260901125301 16 179 3.2 6.4 0.00 0.05 0.05 94 1017.3
20260901125129 16 188 3.2 6.4 0.00 0.05 0.05 94 1017.2
20260901125029 16 199 3.2 6.4 0.00 0.05 0.05 94 1017.2
20260901124853 16 199 3.2 8.0 0.00 0.05 0.05 94 1017.3
20260901124815 16 211 3.2 8.0 0.00 0.05 0.05 94 1017.3
20260901124627 16 321 1.6 8.0 0.00 0.05 0.05 93 1017.3
20260901124541 16 321 1.6 8.0 0.00 0.05 0.05 93 1017.3
20260901124411 16 338 1.6 8.0 0.00 0.05 0.05 94 1017.4
20260901124331 16 338 1.6 8.0 0.00 0.05 0.05 94 1017.4
20260901124138 16 345 4.8 8.0 0.00 0.05 0.05 94 1017.3
20260901124058 16 360 4.8 8.0 0.00 0.05 0.05 94 1017.3
20260901124003 16 333 3.2 6.4 0.00 0.05 0.05 95 1017.3
20260901123924 16 340 3.2 4.8 0.00 0.05 0.05 95 1017.3
20260901123753 16 41 1.6 4.8 0.00 0.05 0.05 95 1017.2
20260901123647 16 117 0.0 0.0 0.00 0.05 0.05 95 1017.2
20260901123437 16 155 0.0 0.0 0.00 0.05 0.05 95 1017.2
20260901123351 16 155 0.0 0.0 0.00 0.05 0.05 95 1017.2
20260901123221 16 155 0.0 0.0 0.00 0.05 0.05 95 1017.3
20260901123142 16 155 0.0 0.0 0.00 0.05 0.05 95 1017.3
20260901123012 16 167 0.0 0.0 0.00 0.05 0.05 95 1017.4
20260901122932 16 167 0.0 0.0 0.00 0.05 0.05 95 1017.4
20260901122740 16 167 0.0 0.0 0.00 0.05 0.05 95 1017.5
20260901122644 16 167 0.0 0.0 0.00 0.05 0.05 95 1017.6
20260901122545 16 167 0.0 0.0 0.00 0.05 0.05 95 1017.6
20260901122326 16 167 0.0 0.0 0.00 0.05 0.05 95 1017.7
20260901122228 16 167 0.0 0.0 0.00 0.05 0.05 95 1017.8
20260901122132 16 167 0.0 0.0 0.00 0.05 0.05 95 1017.9
20260901122032 16 167 0.0 0.0 0.00 0.05 0.05 95 1017.9
20260901121947 16 167 0.0 0.0 0.00 0.05 0.05 95 1017.9
20260901121901 16 167 0.0 0.0 0.00 0.05 0.05 95 1017.9
20260901121821 16 167 0.0 0.0 0.00 0.05 0.05 95 1017.9
20260901121644 16 167 0.0 0.0 0.00 0.05 0.05 95 1017.9
20260901121543 16 167 0.0 0.0 0.00 0.05 0.05 95 1017.9
20260901121427 16 167 0.0 0.0 0.00 0.05 0.05 95 1017.9
20260901121348 16 167 0.0 0.0 0.00 0.05 0.05 95 1017.9
20260901121311 16 167 0.0 0.0 0.00 0.05 0.05 95 1017.8
20260901121213 16 167 0.0 0.0 0.00 0.05 0.05 95 1017.8
20260901121136 16 167 0.0 0.0 0.00 0.05 0.05 95 1017.8
20260901121005 16 167 0.0 0.0 0.00 0.05 0.05 95 1017.8
20260901120919 16 167 0.0 0.0 0.00 0.05 0.05 95 1017.8
20260901120732 16 167 0.0 0.0 0.00 0.05 0.05 95 1017.8
20260901120646 16 167 0.0 0.0 0.00 0.05 0.05 95 1017.9
20260901120514 16 167 0.0 0.0 0.00 0.05 0.05 95 1017.9
20260901120416 16 167 0.0 0.0 0.00 0.05 0.05 95 1017.8
20260901120319 16 167 0.0 0.0 0.00 0.05 0.05 95 1017.9
20260901120241 16 167 0.0 0.0 0.00 0.05 0.05 95 1017.8
20260901120048 16 167 0.0 0.0 0.00 0.05 0.05 95 1017.7
20260901115948 16 167 0.0 0.0 0.00 0.05 0.05 95 1017.8
20260901115830 16 167 0.0 0.0 0.00 0.05 0.05 95 1017.7
20260901115751 16 167 0.0 0.0 0.00 0.05 0.05 95 1017.7
20260901115711 16 167 0.0 0.0 0.00 0.05 0.05 95 1017.8
20260901115615 16 167 0.0 0.0 0.00 0.05 0.05 95 1017.7
20260901115540 16 167 0.0 0.0 0.00 0.05 0.05 95 1017.7
20260901115408 16 167 0.0 0.0 0.00 0.05 0.05 95 1017.7
20260901115324 16 167 0.0 0.0 0.00 0.05 0.05 95 1017.7
20260901115152 16 167 0.0 0.0 0.00 0.05 0.05 95 1017.8
20260901115114 16 167 0.0 0.0 0.00 0.05 0.05 95 1017.7
20260901114946 15 167 0.0 0.0 0.00 0.05 0.05 95 1017.7
20260901114840 15 167 0.0 0.0 0.00 0.05 0.05 95 1017.7
20260901114802 15 167 0.0 0.0 0.00 0.05 0.05 95 1017.7
20260901114705 15 167 0.0 0.0 0.00 0.05 0.05 95 1017.7
20260901114628 15 167 0.0 0.0 0.00 0.05 0.05 95 1017.7
20260901114430 15 167 0.0 0.0 0.00 0.05 0.05 95 1017.6
20260901114335 15 167 0.0 0.0 0.00 0.05 0.05 95 1017.6
20260901114238 15 167 0.0 0.0 0.00 0.05 0.05 95 1017.6
20260901114138 15 167 0.0 0.0 0.00 0.05 0.05 95 1017.6
20260901114008 15 167 0.0 0.0 0.00 0.05 0.05 95 1017.5
20260901113923 15 167 0.0 0.0 0.00 0.05 0.05 95 1017.5
20260901113733 15 167 0.0 0.0 0.00 0.05 0.05 95 1017.5
20260901113650 15 167 0.0 0.0 0.00 0.05 0.05 95 1017.5
20260901113518 15 167 0.0 0.0 0.00 0.05 0.05 95 1017.5
20260901113440 15 167 0.0 0.0 0.00 0.05 0.05 95 1017.4
20260901113249 15 167 0.0 0.0 0.00 0.05 0.05 95 1017.4
20260901113126 15 167 0.0 0.0 0.00 0.05 0.05 95 1017.4
20260901113047 15 167 0.0 0.0 0.00 0.05 0.05 95 1017.4
20260901112949 15 167 0.0 0.0 0.03 0.05 0.05 95 1017.4
20260901112911 15 167 0.0 0.0 0.03 0.05 0.05 95 1017.4
20260901112719 15 167 0.0 0.0 0.03 0.05 0.05 95 1017.4
20260901112632 15 167 0.0 0.0 0.03 0.05 0.05 95 1017.4
20260901112411 15 167 0.0 0.0 0.03 0.05 0.05 94 1017.4
20260901112334 15 167 0.0 0.0 0.03 0.05 0.05 94 1017.4
20260901112137 15 167 0.0 0.0 0.03 0.05 0.05 94 1017.4
20260901112058 15 167 0.0 0.0 0.03 0.05 0.05 94 1017.4
20260901112002 15 167 0.0 0.0 0.03 0.05 0.05 94 1017.3
20260901111923 15 167 0.0 0.0 0.03 0.05 0.05 94 1017.3
20260901111737 15 167 0.0 0.0 0.03 0.05 0.05 94 1017.2
20260901111630 15 167 0.0 0.0 0.03 0.05 0.05 94 1017.3
20260901111551 15 167 0.0 0.0 0.03 0.05 0.05 94 1017.3
20260901111435 15 167 0.0 0.0 0.03 0.05 0.05 94 1017.2
20260901111358 15 167 0.0 0.0 0.05 0.05 0.05 94 1017.2
20260901111140 15 167 0.0 0.0 0.05 0.05 0.05 94 1017.2
20260901111100 15 167 0.0 0.0 0.05 0.05 0.05 94 1017.2
20260901111003 15 167 0.0 0.0 0.05 0.05 0.05 95 1017.3
20260901110925 15 167 0.0 0.0 0.05 0.05 0.05 95 1017.3
20260901110733 15 246 0.0 0.0 0.05 0.05 0.05 95 1017.3
20260901110633 15 246 0.0 0.0 0.05 0.05 0.05 95 1017.3
20260901110536 15 246 0.0 0.0 0.05 0.05 0.05 95 1017.2
20260901110436 15 246 0.0 0.0 0.05 0.05 0.05 95 1017.2
20260901110305 15 246 0.0 0.0 0.05 0.05 0.05 95 1017.2
20260901110230 15 246 0.0 0.0 0.05 0.05 0.05 95 1017.2
20260901110100 15 246 0.0 0.0 0.05 0.05 0.05 95 1017.2
20260901110023 15 246 0.0 0.0 0.05 0.05 0.05 95 1017.2
20260901105826 15 246 0.0 0.0 0.05 0.08 0.05 95 1017.2
20260901105731 15 246 0.0 0.0 0.05 0.08 0.05 95 1017.2
20260901105634 15 246 0.0 0.0 0.05 0.08 0.05 95 1017.2
20260901105555 15 246 0.0 0.0 0.05 0.08 0.05 95 1017.2
20260901105517 15 246 0.0 0.0 0.05 0.08 0.05 95 1017.3
20260901105421 15 284 0.0 0.0 0.05 0.08 0.05 95 1017.3
20260901105342 15 284 0.0 0.0 0.05 0.08 0.05 95 1017.3
20260901105211 15 284 0.0 0.0 0.05 0.08 0.05 95 1017.3
20260901105128 15 284 0.0 0.0 0.05 0.08 0.05 95 1017.3
20260901104957 15 284 0.0 0.0 0.05 0.08 0.05 95 1017.3
20260901104919 15 284 0.0 0.0 0.05 0.08 0.05 95 1017.3
20260901104751 15 284 0.0 0.0 0.05 0.08 0.05 95 1017.3
20260901104715 15 284 0.0 0.0 0.05 0.08 0.05 95 1017.3
20260901104530 15 284 0.0 0.0 0.05 0.08 0.05 95 1017.4
20260901104446 15 284 0.0 0.0 0.05 0.08 0.05 95 1017.4
20260901104315 15 284 0.0 0.0 0.05 0.08 0.05 95 1017.4
20260901104225 15 284 0.0 0.0 0.05 0.08 0.05 95 1017.3
20260901104109 15 284 0.0 0.0 0.05 0.08 0.05 95 1017.3
20260901104030 15 284 0.0 0.0 0.05 0.08 0.05 95 1017.3
20260901103818 15 284 0.0 0.0 0.05 0.08 0.05 95 1017.3
20260901103733 15 284 0.0 0.0 0.05 0.08 0.05 95 1017.3
20260901103602 15 284 0.0 0.0 0.05 0.08 0.05 95 1017.2
20260901103525 15 284 0.0 0.0 0.05 0.08 0.05 95 1017.2
20260901103328 15 284 0.0 0.0 0.05 0.08 0.05 95 1017.2
20260901103232 15 284 0.0 0.0 0.05 0.08 0.05 95 1017.1
20260901103135 15 284 0.0 0.0 0.05 0.08 0.05 95 1017.1
20260901103055 15 284 0.0 0.0 0.05 0.08 0.05 95 1017.1
20260901103016 15 284 0.0 0.0 0.03 0.05 0.03 95 1017.1
20260901102919 15 284 0.0 0.0 0.03 0.05 0.03 95 1017.1
20260901102821 15 284 0.0 0.0 0.03 0.05 0.03 95 1017.1
20260901102638 15 284 0.0 0.0 0.03 0.05 0.03 95 1017.1
20260901102532 15 284 0.0 0.0 0.03 0.05 0.03 95 1017.1
20260901102343 15 284 0.0 0.0 0.03 0.05 0.03 95 1017.0
20260901102238 15 284 0.0 0.0 0.03 0.05 0.03 95 1017.0
20260901102125 15 284 0.0 0.0 0.03 0.05 0.03 95 1017.0
20260901102046 15 284 0.0 0.0 0.03 0.05 0.03 95 1016.9
20260901102008 15 284 0.0 0.0 0.03 0.05 0.03 95 1016.9
20260901101911 15 284 0.0 0.0 0.03 0.05 0.03 95 1016.9
20260901101833 15 284 0.0 0.0 0.03 0.05 0.03 95 1016.9
20260901101637 15 284 0.0 0.0 0.03 0.05 0.03 95 1016.9
20260901101538 15 284 0.0 0.0 0.03 0.05 0.03 95 1017.0
20260901101423 15 284 0.0 0.0 0.00 0.03 0.00 95 1016.9
20260901101344 15 284 0.0 0.0 0.00 0.03 0.00 95 1017.0
20260901101306 15 284 0.0 0.0 0.00 0.03 0.00 95 1016.9
20260901101200 15 284 0.0 0.0 0.00 0.03 0.00 95 1016.9
20260901101101 15 284 0.0 0.0 0.00 0.03 0.00 95 1016.9
20260901100929 15 284 0.0 0.0 0.00 0.03 0.00 95 1017.0
20260901100825 15 284 0.0 0.0 0.00 0.03 0.00 95 1017.0
20260901100635 15 284 0.0 0.0 0.00 0.03 0.00 95 1017.0
20260901100551 15 284 0.0 0.0 0.00 0.03 0.00 95 1017.0
20260901100420 15 284 0.0 0.0 0.00 0.03 0.00 95 1017.1
20260901100321 15 284 0.0 0.0 0.00 0.03 0.00 95 1017.1
20260901100124 15 284 0.0 0.0 0.00 0.03 0.00 95 1017.1
20260901100046 15 284 0.0 0.0 0.00 0.03 0.00 95 1017.1
20260901095949 15 284 0.0 0.0 0.00 0.03 0.00 95 1017.1
20260901095833 15 284 0.0 0.0 0.00 0.03 0.00 95 1017.1
20260901095754 15 284 0.0 0.0 0.00 0.03 0.00 95 1017.0
20260901095659 15 284 0.0 0.0 0.00 0.03 0.00 95 1017.1
20260901095621 15 284 0.0 0.0 0.00 0.03 0.00 95 1017.1
20260901095425 15 284 0.0 0.0 0.00 0.03 0.00 95 1017.1
20260901095326 15 284 0.0 0.0 0.00 0.03 0.00 95 1017.1
20260901095230 15 284 0.0 0.0 0.00 0.03 0.00 95 1017.0
20260901095152 15 255 0.0 0.0 0.00 0.03 0.00 95 1017.0
20260901095021 15 206 0.0 0.0 0.00 0.03 0.00 95 1017.0
20260901094915 15 206 0.0 0.0 0.00 0.03 0.00 95 1017.0
20260901094749 15 206 0.0 0.0 0.00 0.03 0.00 95 1016.9
20260901094709 15 206 0.0 0.0 0.00 0.03 0.00 95 1016.9
20260901094612 15 206 0.0 0.0 0.00 0.03 0.00 95 1016.9
20260901094515 15 206 0.0 0.0 0.00 0.03 0.00 95 1016.9
20260901094437 15 206 0.0 0.0 0.00 0.03 0.00 95 1016.9
20260901094307 15 206 0.0 0.0 0.00 0.03 0.00 95 1016.9
20260901094222 15 206 0.0 0.0 0.00 0.03 0.00 95 1016.9
20260901094032 15 206 0.0 0.0 0.00 0.03 0.00 95 1016.9
20260901093948 15 206 0.0 0.0 0.00 0.03 0.00 95 1016.9
20260901093819 15 206 0.0 0.0 0.00 0.03 0.00 95 1016.9
20260901093740 15 206 0.0 0.0 0.00 0.03 0.00 95 1016.9
20260901093604 15 206 0.0 0.0 0.00 0.03 0.00 95 1016.8
20260901093531 15 206 0.0 0.0 0.00 0.03 0.00 95 1016.8
20260901093342 15 206 0.0 0.0 0.00 0.03 0.00 95 1016.8
20260901093237 15 206 0.0 0.0 0.00 0.03 0.00 95 1016.8
20260901093131 15 206 0.0 0.0 0.00 0.03 0.00 95 1016.8
20260901093051 15 206 0.0 0.0 0.00 0.03 0.00 95 1016.7
20260901093013 15 206 0.0 0.0 0.00 0.03 0.00 95 1016.7
20260901092917 15 206 0.0 0.0 0.00 0.03 0.00 95 1016.7
20260901092838 15 206 0.0 0.0 0.00 0.03 0.00 95 1016.7
20260901092708 15 206 0.0 0.0 0.00 0.03 0.00 95 1016.7
20260901092624 15 206 0.0 0.0 0.00 0.03 0.00 95 1016.7
20260901092437 15 206 0.0 0.0 0.00 0.03 0.00 95 1016.7
20260901092333 15 206 0.0 0.0 0.00 0.03 0.00 95 1016.8
20260901092305 15 206 0.0 0.0 0.00 0.03 0.00 95 1016.8
20260901092207 15 206 0.0 0.0 0.00 0.03 0.00 95 1016.8
20260901092129 15 206 0.0 0.0 0.00 0.03 0.00 95 1016.8
20260901091933 15 206 0.0 0.0 0.00 0.03 0.00 95 1016.9
20260901091834 15 206 0.0 0.0 0.00 0.03 0.00 95 1016.9
20260901091738 15 206 0.0 0.0 0.00 0.03 0.00 95 1016.9
20260901091643 15 206 0.0 0.0 0.00 0.03 0.00 95 1016.8
20260901091604 15 206 0.0 0.0 0.00 0.03 0.00 95 1016.9
20260901091445 15 206 0.0 0.0 0.00 0.03 0.00 95 1016.8
20260901091408 15 206 0.0 0.0 0.00 0.03 0.00 95 1016.8
20260901091216 15 206 0.0 0.0 0.00 0.03 0.00 95 1016.8
20260901091131 15 206 0.0 0.0 0.00 0.03 0.00 95 1016.8
20260901090941 15 206 0.0 0.0 0.00 0.03 0.00 95 1016.8
20260901090835 15 206 0.0 0.0 0.00 0.03 0.00 95 1016.8
20260901090806 15 206 0.0 0.0 0.00 0.03 0.00 95 1016.8
20260901090707 15 206 0.0 0.0 0.00 0.03 0.00 95 1016.9
20260901090630 15 206 0.0 0.0 0.00 0.03 0.00 95 1016.9
20260901090503 15 206 0.0 0.0 0.00 0.03 0.00 95 1016.8
20260901090418 15 206 0.0 0.0 0.00 0.03 0.00 95 1016.9
20260901090227 15 206 0.0 0.0 0.00 0.03 0.00 95 1016.9
20260901090143 15 206 0.0 0.0 0.00 0.03 0.00 95 1016.9
20260901090011 15 206 0.0 0.0 0.00 0.03 0.00 95 1016.9
20260901085933 15 206 0.0 0.0 0.00 0.03 0.00 95 1016.9
20260901085717 15 206 0.0 0.0 0.00 0.03 0.00 95 1017.0
20260901085650 15 206 0.0 0.0 0.00 0.03 0.00 95 1016.9
20260901085552 15 206 0.0 0.0 0.00 0.03 0.00 95 1017.0
20260901085514 15 206 0.0 0.0 0.00 0.03 0.00 95 1017.0
20260901085438 15 206 0.0 0.0 0.00 0.03 0.00 95 1017.0
20260901085321 15 206 0.0 0.0 0.00 0.03 0.00 95 1017.0
20260901085242 15 206 0.0 0.0 0.00 0.03 0.00 95 1017.0
20260901085111 15 206 0.0 0.0 0.00 0.03 0.00 95 1016.9
20260901085027 15 206 0.0 0.0 0.00 0.03 0.00 95 1016.9
20260901084856 15 206 0.0 0.0 0.00 0.03 0.00 95 1016.8
20260901084818 15 206 0.0 0.0 0.00 0.03 0.00 95 1016.7
20260901084641 15 206 0.0 0.0 0.00 0.03 0.00 95 1016.7
20260901084542 15 206 0.0 0.0 0.00 0.03 0.00 95 1016.6
20260901084426 15 206 0.0 0.0 0.00 0.03 0.00 95 1016.6
20260901084347 15 206 0.0 0.0 0.00 0.03 0.00 95 1016.6
20260901084312 15 206 0.0 0.0 0.00 0.03 0.00 95 1016.6
20260901084155 15 206 0.0 0.0 0.00 0.03 0.00 95 1016.7
20260901084116 15 206 0.0 0.0 0.00 0.03 0.00 95 1016.7
20260901083946 15 206 0.0 0.0 0.00 0.03 0.00 95 1016.7
20260901083840 15 206 0.0 0.0 0.00 0.03 0.00 95 1016.8
20260901083659 15 206 0.0 0.0 0.00 0.03 0.00 95 1016.8
20260901083621 15 206 0.0 0.0 0.00 0.03 0.00 95 1016.8
20260901083515 15 206 0.0 0.0 0.00 0.03 0.00 95 1016.8
20260901083324 15 206 0.0 0.0 0.00 0.03 0.00 95 1016.8
20260901083238 15 206 0.0 0.0 0.00 0.03 0.00 95 1016.9
20260901083106 15 206 0.0 0.0 0.00 0.03 0.00 95 1016.9
20260901083028 15 206 0.0 0.0 0.00 0.03 0.00 95 1016.9
20260901082903 15 206 0.0 0.0 0.00 0.03 0.00 95 1017.0
20260901082819 15 206 0.0 0.0 0.00 0.03 0.00 95 1017.0
20260901082622 15 206 0.0 0.0 0.00 0.03 0.00 95 1017.0
20260901082536 15 206 0.0 0.0 0.00 0.03 0.00 95 1017.0
20260901082406 15 206 0.0 0.0 0.00 0.03 0.00 95 1017.0
20260901082328 15 206 0.0 0.0 0.00 0.03 0.00 95 1017.0
20260901082130 15 206 0.0 0.0 0.00 0.03 0.00 95 1017.0
20260901082052 15 206 0.0 0.0 0.00 0.03 0.00 95 1017.0
20260901081935 15 206 0.0 0.0 0.00 0.03 0.00 95 1017.0
20260901081856 15 206 0.0 0.0 0.00 0.03 0.00 95 1017.0
20260901081729 15 206 0.0 0.0 0.00 0.03 0.00 95 1017.0
20260901081624 15 206 0.0 0.0 0.00 0.03 0.00 95 1017.0
20260901081434 15 206 0.0 0.0 0.00 0.03 0.00 95 1017.0
20260901081328 15 206 0.0 0.0 0.00 0.03 0.00 95 1017.0
20260901081249 15 206 0.0 0.0 0.00 0.03 0.00 95 1016.9
20260901081133 15 206 0.0 0.0 0.00 0.03 0.00 95 1016.9
20260901081054 15 206 0.0 0.0 0.00 0.03 0.00 95 1016.9
20260901080958 15 206 0.0 0.0 0.00 0.03 0.00 95 1016.9
20260901080919 15 206 0.0 0.0 0.00 0.03 0.00 95 1016.9
20260901080802 15 206 0.0 0.0 0.00 0.03 0.00 95 1016.8
20260901080720 15 206 0.0 0.0 0.00 0.03 0.00 95 1016.8
20260901080531 15 206 0.0 0.0 0.00 0.03 0.00 95 1016.8
20260901080446 15 206 0.0 0.0 0.00 0.03 0.00 95 1016.8
20260901080252 15 206 0.0 0.0 0.00 0.03 0.00 94 1016.9
20260901080213 15 206 0.0 0.0 0.00 0.03 0.00 94 1017.0
20260901080044 15 206 0.0 0.0 0.00 0.03 0.00 95 1017.0
20260901075939 15 206 0.0 0.0 0.00 0.03 0.00 95 1017.0
20260901075727 15 206 0.0 0.0 0.00 0.03 0.00 95 1017.0
20260901075623 15 206 0.0 0.0 0.00 0.03 0.00 95 1017.0
20260901075521 15 206 0.0 0.0 0.00 0.03 0.00 95 1017.0
20260901075432 15 206 0.0 0.0 0.00 0.03 0.00 95 1017.0
20260901075348 15 206 0.0 0.0 0.00 0.03 0.00 95 1017.0
20260901075207 15 206 0.0 0.0 0.00 0.03 0.00 95 1017.0
20260901075015 15 206 0.0 0.0 0.00 0.03 0.00 95 1016.9
20260901074931 15 206 0.0 0.0 0.00 0.03 0.00 95 1016.9
20260901074811 15 206 0.0 0.0 0.00 0.03 0.00 95 1016.9
20260901074732 15 206 0.0 0.0 0.00 0.03 0.00 95 1016.9
20260901074514 15 206 0.0 0.0 0.00 0.03 0.00 95 1016.9
20260901074446 15 206 0.0 0.0 0.00 0.03 0.00 95 1016.9
20260901074352 15 206 0.0 0.0 0.00 0.03 0.00 95 1016.9
20260901074230 15 206 0.0 0.0 0.00 0.03 0.00 95 1016.9
20260901074133 15 206 0.0 0.0 0.00 0.03 0.00 95 1016.9
20260901074034 15 206 0.0 0.0 0.00 0.03 0.00 95 1016.9
20260901073913 15 206 0.0 0.0 0.00 0.03 0.00 95 1016.9
20260901073828 15 206 0.0 0.0 0.00 0.03 0.00 95 1016.9
20260901073657 15 206 0.0 0.0 0.00 0.03 0.00 95 1017.0
20260901073620 15 206 0.0 0.0 0.00 0.03 0.00 94 1017.1
20260901073423 15 206 0.0 0.0 0.00 0.03 0.00 95 1017.1
20260901073344 15 206 0.0 0.0 0.00 0.03 0.00 95 1017.1
20260901073238 15 206 0.0 0.0 0.00 0.03 0.00 95 1017.1
20260901073143 15 206 0.0 0.0 0.00 0.03 0.00 95 1017.1
20260901073025 15 206 0.0 0.0 0.00 0.03 0.00 95 1017.1
20260901072946 15 206 0.0 0.0 0.00 0.03 0.00 94 1017.1
20260901072829 15 206 0.0 0.0 0.00 0.03 0.00 94 1017.1
20260901072729 15 206 0.0 0.0 0.00 0.03 0.00 94 1017.1
20260901072642 15 206 0.0 0.0 0.00 0.03 0.00 94 1017.0
20260901072605 15 206 0.0 0.0 0.00 0.03 0.00 94 1017.0
20260901072527 15 206 0.0 0.0 0.00 0.03 0.00 94 1017.0
20260901072335 15 206 0.0 0.0 0.00 0.03 0.00 94 1017.1
20260901072230 15 206 0.0 0.0 0.00 0.03 0.00 95 1017.1
20260901072103 15 206 0.0 0.0 0.00 0.03 0.00 95 1017.1
20260901072026 15 206 0.0 0.0 0.00 0.03 0.00 95 1017.1
20260901071829 15 206 0.0 0.0 0.00 0.03 0.00 95 1017.1
20260901071750 15 206 0.0 0.0 0.00 0.03 0.00 95 1017.1
20260901071653 15 206 0.0 0.0 0.00 0.03 0.00 94 1017.1
20260901071614 15 206 0.0 0.0 0.00 0.03 0.00 94 1017.1
20260901071445 15 206 0.0 0.0 0.00 0.03 0.00 94 1017.0
20260901071340 15 206 0.0 0.0 0.00 0.03 0.00 94 1017.0
20260901071233 15 206 0.0 0.0 0.00 0.03 0.00 94 1017.0
20260901071153 15 206 0.0 0.0 0.00 0.03 0.00 94 1017.0
20260901071120 15 206 0.0 0.0 0.00 0.03 0.00 94 1017.0
20260901071000 15 206 0.0 0.0 0.00 0.03 0.00 94 1017.1
20260901070928 15 206 0.0 0.0 0.00 0.03 0.00 94 1017.1
20260901070756 15 206 0.0 0.0 0.00 0.03 0.00 94 1017.2
20260901070718 15 206 0.0 0.0 0.00 0.03 0.00 94 1017.2
20260901070540 15 206 0.0 0.0 0.00 0.03 0.00 94 1017.2
20260901070441 15 206 0.0 0.0 0.00 0.03 0.00 94 1017.2
20260901070325 15 206 0.0 0.0 0.00 0.03 0.00 94 1017.2
20260901070246 15 206 0.0 0.0 0.00 0.03 0.00 95 1017.1
20260901070151 15 206 0.0 0.0 0.00 0.03 0.00 94 1017.1
20260901070034 15 206 0.0 0.0 0.00 0.03 0.00 94 1017.1
20260901065955 15 206 0.0 0.0 0.00 0.03 0.00 94 1017.2
20260901065839 15 206 0.0 0.0 0.00 0.03 0.00 95 1017.1
20260901065737 15 206 0.0 0.0 0.00 0.03 0.00 94 1017.2
20260901065638 15 206 0.0 0.0 0.00 0.03 0.00 94 1017.2
20260901065601 15 206 0.0 0.0 0.00 0.03 0.00 95 1017.2
20260901065429 15 206 0.0 0.0 0.00 0.03 0.00 95 1017.2
20260901065323 15 206 0.0 0.0 0.00 0.03 0.00 95 1017.2
20260901065153 15 206 0.0 0.0 0.00 0.03 0.00 95 1017.1
20260901065115 15 206 0.0 0.0 0.00 0.03 0.00 95 1017.1
20260901064940 15 206 0.0 0.0 0.00 0.03 0.00 95 1017.2
20260901064844 15 206 0.0 0.0 0.00 0.03 0.00 95 1017.2
20260901064727 15 206 0.0 0.0 0.00 0.03 0.00 95 1017.2
20260901064649 15 206 0.0 0.0 0.00 0.03 0.00 95 1017.2
20260901064520 15 206 0.0 0.0 0.00 0.03 0.00 95 1017.2
20260901064412 15 206 0.0 0.0 0.00 0.03 0.00 94 1017.2
20260901064230 15 206 0.0 0.0 0.00 0.03 0.00 94 1017.3
20260901064130 15 206 0.0 0.0 0.00 0.03 0.00 94 1017.3
20260901064013 15 206 0.0 0.0 0.00 0.03 0.00 94 1017.3
20260901063936 15 206 0.0 0.0 0.00 0.03 0.00 94 1017.3
20260901063805 15 206 0.0 0.0 0.00 0.03 0.00 94 1017.3
20260901063720 15 206 0.0 0.0 0.00 0.03 0.00 94 1017.3
20260901063550 15 206 0.0 0.0 0.00 0.03 0.00 94 1017.3
20260901063515 15 206 0.0 0.0 0.00 0.03 0.00 94 1017.2
20260901063358 15 206 0.0 0.0 0.00 0.03 0.00 94 1017.2
20260901063320 15 206 0.0 0.0 0.00 0.03 0.00 94 1017.3
20260901063132 15 206 0.0 0.0 0.00 0.03 0.00 94 1017.3
20260901063024 15 206 0.0 0.0 0.00 0.03 0.00 95 1017.2
20260901062946 15 206 0.0 0.0 0.00 0.03 0.00 94 1017.2
20260901062849 15 206 0.0 0.0 0.00 0.03 0.00 94 1017.2
20260901062728 15 206 0.0 0.0 0.00 0.03 0.00 94 1017.2
20260901062630 15 206 0.0 0.0 0.00 0.03 0.00 94 1017.2
20260901062551 15 206 0.0 0.0 0.00 0.03 0.00 94 1017.2
20260901062455 15 206 0.0 0.0 0.00 0.03 0.00 94 1017.2
20260901062319 15 206 0.0 0.0 0.00 0.03 0.00 94 1017.2
20260901062149 15 206 0.0 0.0 0.00 0.03 0.00 94 1017.3
20260901062043 15 206 0.0 0.0 0.00 0.03 0.00 94 1017.3
20260901061913 15 206 0.0 0.0 0.00 0.03 0.00 94 1017.4
20260901061815 15 206 0.0 0.0 0.00 0.03 0.00 94 1017.4
20260901061625 15 206 0.0 0.0 0.00 0.03 0.00 94 1017.4
20260901061547 15 206 0.0 0.0 0.00 0.03 0.00 94 1017.5
20260901061430 15 206 0.0 0.0 0.00 0.03 0.00 94 1017.5
20260901061346 15 206 0.0 0.0 0.00 0.03 0.00 95 1017.6
20260901061227 15 206 0.0 0.0 0.00 0.03 0.00 94 1017.6
20260901061149 15 206 0.0 0.0 0.00 0.03 0.00 95 1017.6
20260901061110 15 206 0.0 0.0 0.00 0.03 0.00 95 1017.5
20260901061016 15 206 0.0 0.0 0.00 0.03 0.00 95 1017.6
20260901060937 15 206 0.0 0.0 0.00 0.03 0.00 95 1017.6
20260901060808 15 206 0.0 0.0 0.00 0.03 0.00 95 1017.5
20260901060723 15 206 0.0 0.0 0.00 0.03 0.00 95 1017.5
20260901060552 15 206 0.0 0.0 0.00 0.03 0.00 95 1017.5
20260901060515 15 206 0.0 0.0 0.00 0.03 0.00 95 1017.5
20260901060337 15 206 0.0 0.0 0.00 0.03 0.00 95 1017.5
20260901060238 15 206 0.0 0.0 0.00 0.03 0.00 95 1017.5
20260901060126 15 206 0.0 0.0 0.00 0.03 0.00 95 1017.5
20260901060048 15 206 0.0 0.0 0.00 0.03 0.00 95 1017.6
20260901055917 15 206 0.0 0.0 0.00 0.03 0.00 95 1017.6
20260901055831 15 206 0.0 0.0 0.00 0.03 0.00 95 1017.6
20260901055641 15 206 0.0 0.0 0.00 0.03 0.00 95 1017.5
20260901055535 15 206 0.0 0.0 0.00 0.03 0.00 95 1017.5
20260901055431 15 206 0.0 0.0 0.00 0.03 0.00 95 1017.5
20260901055354 15 206 0.0 0.0 0.00 0.03 0.00 95 1017.5
20260901055140 15 206 0.0 0.0 0.00 0.03 0.00 95 1017.6
20260901055040 15 206 0.0 0.0 0.00 0.03 0.00 95 1017.6
20260901054943 15 206 0.0 0.0 0.00 0.03 0.00 95 1017.7
20260901054905 15 206 0.0 0.0 0.00 0.03 0.00 95 1017.7
20260901054713 15 206 0.0 0.0 0.00 0.03 0.00 95 1017.8
20260901054627 15 206 0.0 0.0 0.00 0.03 0.00 95 1017.8
20260901054437 15 206 0.0 0.0 0.00 0.03 0.00 95 1017.8
20260901054331 15 206 0.0 0.0 0.00 0.03 0.00 95 1017.8
20260901054251 15 206 0.0 0.0 0.00 0.03 0.00 95 1017.8
20260901054204 15 206 0.0 0.0 0.00 0.03 0.00 95 1017.8
20260901054130 15 206 0.0 0.0 0.00 0.03 0.00 95 1017.8
20260901053959 15 206 0.0 0.0 0.00 0.03 0.00 95 1017.8
20260901053901 15 206 0.0 0.0 0.00 0.03 0.00 95 1017.8
20260901053742 15 206 0.0 0.0 0.00 0.03 0.00 95 1017.7
20260901053704 15 206 0.0 0.0 0.00 0.03 0.00 95 1017.7
20260901053512 15 206 0.0 0.0 0.00 0.03 0.00 95 1017.8
20260901053428 15 206 0.0 0.0 0.00 0.03 0.00 95 1017.8
20260901053256 15 206 0.0 0.0 0.00 0.03 0.00 95 1017.7
20260901053156 15 206 0.0 0.0 0.00 0.03 0.00 95 1017.7
20260901053059 15 206 0.0 0.0 0.00 0.03 0.00 95 1017.7
20260901053022 15 206 0.0 0.0 0.00 0.03 0.00 95 1017.7
20260901052944 15 206 0.0 0.0 0.00 0.03 0.00 95 1017.7
20260901052806 15 206 0.0 0.0 0.00 0.03 0.00 95 1017.7
20260901052732 15 206 0.0 0.0 0.00 0.03 0.00 95 1017.7
20260901052542 15 206 0.0 0.0 0.00 0.03 0.00 95 1017.7
20260901052436 15 206 0.0 0.0 0.00 0.03 0.00 95 1017.7
20260901052408 15 206 0.0 0.0 0.00 0.03 0.00 95 1017.7
20260901052311 15 206 0.0 0.0 0.00 0.03 0.00 95 1017.7
20260901052233 15 206 0.0 0.0 0.00 0.03 0.00 95 1017.7
20260901052037 15 206 0.0 0.0 0.00 0.03 0.00 95 1017.9
20260901051938 15 206 0.0 0.0 0.00 0.03 0.00 95 1017.9
20260901051824 15 206 0.0 0.0 0.00 0.03 0.00 95 1017.9
20260901051745 15 206 0.0 0.0 0.00 0.03 0.00 95 1017.9
20260901051625 15 206 0.0 0.0 0.00 0.03 0.00 95 1017.9
20260901051548 15 206 0.0 0.0 0.00 0.03 0.00 95 1017.9
20260901051417 15 206 0.0 0.0 0.00 0.03 0.00 95 1018.0
20260901051331 15 206 0.0 0.0 0.00 0.03 0.00 95 1017.9
20260901051139 15 206 0.0 0.0 0.00 0.03 0.00 95 1018.0
20260901051040 15 206 0.0 0.0 0.00 0.03 0.00 95 1018.0
20260901050842 15 206 0.0 0.0 0.00 0.03 0.00 95 1018.0
20260901050803 15 206 0.0 0.0 0.00 0.03 0.00 95 1018.0
20260901050705 15 206 0.0 0.0 0.00 0.03 0.00 95 1018.0
20260901050627 15 206 0.0 0.0 0.00 0.03 0.00 95 1018.0
20260901050501 15 206 0.0 0.0 0.00 0.03 0.00 95 1018.0
20260901050423 15 206 0.0 0.0 0.00 0.03 0.00 95 1018.0
20260901050226 15 206 0.0 0.0 0.00 0.03 0.00 95 1018.0
20260901050147 15 206 0.0 0.0 0.00 0.03 0.00 95 1018.0
20260901050052 15 206 0.0 0.0 0.00 0.03 0.00 95 1018.0
20260901050012 15 206 0.0 0.0 0.00 0.03 0.00 95 1018.0
20260901045751 15 206 0.0 0.0 0.00 0.03 0.00 95 1017.9
20260901045645 15 206 0.0 0.0 0.00 0.03 0.00 95 1017.9
20260901045514 15 206 0.0 0.0 0.00 0.03 0.00 95 1017.9
20260901045437 15 206 0.0 0.0 0.00 0.03 0.00 95 1017.9
20260901045223 15 206 0.0 0.0 0.00 0.03 0.00 95 1017.9
20260901045144 15 206 0.0 0.0 0.00 0.03 0.00 95 1017.9
20260901045049 15 206 0.0 0.0 0.00 0.03 0.00 95 1017.9
20260901045011 15 206 0.0 0.0 0.00 0.03 0.00 95 1017.8
20260901044840 15 206 0.0 0.0 0.00 0.03 0.00 95 1017.8
20260901044733 14 206 0.0 0.0 0.00 0.03 0.00 95 1017.8
20260901044544 14 206 0.0 0.0 0.00 0.03 0.00 95 1017.9
20260901044458 14 206 0.0 0.0 0.00 0.03 0.00 95 1017.9
20260901044307 14 206 0.0 0.0 0.00 0.03 0.00 95 1018.0
20260901044230 14 206 0.0 0.0 0.00 0.03 0.00 95 1018.0
20260901044054 14 206 0.0 0.0 0.00 0.03 0.00 95 1018.0
20260901044015 14 206 0.0 0.0 0.00 0.03 0.00 95 1018.0
20260901043828 14 206 0.0 0.0 0.00 0.03 0.00 95 1018.1
20260901043742 14 206 0.0 0.0 0.00 0.03 0.00 95 1018.0
20260901043644 14 206 0.0 0.0 0.00 0.03 0.00 95 1018.0
20260901043527 14 206 0.0 0.0 0.00 0.03 0.00 95 1018.0
20260901043448 14 206 0.0 0.0 0.00 0.03 0.00 95 1018.0
20260901043340 14 206 0.0 0.0 0.00 0.03 0.00 95 1018.0
20260901043240 14 206 0.0 0.0 0.00 0.03 0.00 95 1018.0
20260901043110 14 206 0.0 0.0 0.00 0.03 0.00 95 1018.0
20260901043025 14 206 0.0 0.0 0.00 0.03 0.00 95 1018.0
20260901042854 14 206 0.0 0.0 0.00 0.03 0.00 95 1018.0
20260901042822 14 206 0.0 0.0 0.00 0.03 0.00 95 1018.0
20260901042714 14 206 0.0 0.0 0.00 0.03 0.00 95 1018.1
20260901042544 14 206 0.0 0.0 0.00 0.03 0.00 95 1018.0
20260901042507 14 206 0.0 0.0 0.00 0.03 0.00 95 1018.1
20260901042335 14 206 0.0 0.0 0.00 0.03 0.00 95 1018.2
20260901042229 14 206 0.0 0.0 0.00 0.03 0.00 95 1018.2
20260901042058 14 206 0.0 0.0 0.00 0.03 0.00 94 1018.2
20260901042022 14 206 0.0 0.0 0.00 0.03 0.00 94 1018.2
20260901041936 14 206 0.0 0.0 0.00 0.03 0.00 95 1018.2
20260901041805 14 206 0.0 0.0 0.00 0.03 0.00 94 1018.2
20260901041726 14 206 0.0 0.0 0.00 0.03 0.00 94 1018.2
20260901041528 14 206 0.0 0.0 0.00 0.03 0.00 94 1018.1
20260901041453 14 206 0.0 0.0 0.00 0.03 0.00 94 1018.1
20260901041335 14 206 0.0 0.0 0.00 0.03 0.00 94 1018.1
20260901041257 14 206 0.0 0.0 0.00 0.03 0.00 94 1018.1
20260901041039 14 206 0.0 0.0 0.00 0.03 0.00 94 1018.1
20260901040941 14 206 0.0 0.0 0.00 0.03 0.00 94 1018.0
20260901040842 14 206 0.0 0.0 0.00 0.03 0.00 94 1018.1
20260901040805 14 206 0.0 0.0 0.00 0.03 0.00 94 1018.0
20260901040633 14 206 0.0 0.0 0.00 0.03 0.00 94 1018.0
20260901040527 14 206 0.0 0.0 0.00 0.03 0.00 94 1018.0
20260901040340 14 206 0.0 0.0 0.00 0.03 0.00 94 1017.9
20260901040234 14 206 0.0 0.0 0.00 0.03 0.00 94 1017.9
20260901040127 14 206 0.0 0.0 0.00 0.03 0.00 94 1017.9
20260901040028 14 206 0.0 0.0 0.00 0.03 0.00 94 1017.9
20260901035931 14 206 0.0 0.0 0.00 0.03 0.00 93 1017.9
20260901035853 14 206 0.0 0.0 0.00 0.03 0.03 93 1018.0
20260901035611 14 206 0.0 0.0 0.00 0.03 0.03 93 1017.9
20260901035527 14 206 0.0 0.0 0.00 0.03 0.03 93 1017.9
20260901035355 14 206 0.0 0.0 0.00 0.03 0.03 93 1017.9
20260901035317 14 206 0.0 0.0 0.00 0.03 0.03 93 1017.9
20260901035126 14 206 0.0 0.0 0.00 0.03 0.03 94 1017.8
20260901035029 14 206 0.0 0.0 0.00 0.03 0.03 94 1017.7
20260901034932 14 206 0.0 0.0 0.00 0.03 0.03 94 1017.7
20260901034852 14 206 0.0 0.0 0.00 0.03 0.03 94 1017.7
20260901034752 14 206 0.0 0.0 0.00 0.03 0.03 94 1017.7
20260901034655 14 206 0.0 0.0 0.00 0.03 0.03 94 1017.7
20260901034554 14 206 0.0 0.0 0.00 0.03 0.03 94 1017.6
20260901034514 14 206 0.0 0.0 0.00 0.03 0.03 94 1017.6
20260901034357 14 206 0.0 0.0 0.00 0.03 0.03 94 1017.6
20260901034319 14 206 0.0 0.0 0.00 0.03 0.03 94 1017.6
20260901034128 14 206 0.0 0.0 0.00 0.03 0.03 93 1017.7
20260901034030 14 206 0.0 0.0 0.00 0.03 0.03 93 1017.7
20260901033933 14 206 0.0 0.0 0.00 0.03 0.03 93 1017.7
20260901033835 14 206 0.0 0.0 0.00 0.03 0.03 93 1017.7
20260901033756 14 206 0.0 0.0 0.00 0.03 0.03 93 1017.7
20260901033658 14 206 0.0 0.0 0.00 0.03 0.03 94 1017.7
20260901033621 14 206 0.0 0.0 0.00 0.03 0.03 93 1017.7
20260901033426 14 206 0.0 0.0 0.00 0.03 0.03 93 1017.7
20260901033326 14 206 0.0 0.0 0.00 0.03 0.03 93 1017.7
20260901033233 14 206 0.0 0.0 0.00 0.03 0.03 94 1017.7
20260901033155 14 206 0.0 0.0 0.00 0.03 0.03 93 1017.7
20260901033024 14 206 0.0 0.0 0.00 0.03 0.03 93 1017.7
20260901032916 14 206 0.0 0.0 0.00 0.03 0.03 93 1017.6
20260901032817 14 206 0.0 0.0 0.00 0.03 0.03 93 1017.6
20260901032727 15 206 0.0 0.0 0.00 0.03 0.03 94 1017.7
20260901032619 15 206 0.0 0.0 0.00 0.03 0.03 94 1017.7
20260901032429 15 206 0.0 0.0 0.00 0.03 0.03 94 1017.6
20260901032345 15 206 0.0 0.0 0.00 0.03 0.03 94 1017.5
20260901032214 15 206 0.0 0.0 0.00 0.03 0.03 93 1017.5
20260901032137 15 206 0.0 0.0 0.00 0.03 0.03 93 1017.5
20260901031924 15 206 0.0 0.0 0.00 0.03 0.03 93 1017.4
20260901031846 15 206 0.0 0.0 0.00 0.03 0.03 93 1017.4
20260901031750 15 206 0.0 0.0 0.00 0.03 0.03 94 1017.4
20260901031711 15 206 0.0 0.0 0.00 0.03 0.03 94 1017.4
20260901031611 15 206 0.0 0.0 0.00 0.03 0.03 94 1017.4
20260901031515 15 206 0.0 0.0 0.00 0.03 0.03 94 1017.4
20260901031437 15 206 0.0 0.0 0.00 0.03 0.03 94 1017.4
20260901031308 15 206 0.0 0.0 0.00 0.03 0.03 94 1017.4
20260901031223 15 206 0.0 0.0 0.00 0.03 0.03 94 1017.4
20260901031054 15 206 0.0 0.0 0.00 0.03 0.03 94 1017.5
20260901031015 15 206 0.0 0.0 0.00 0.03 0.03 94 1017.4
20260901030846 15 206 0.0 0.0 0.00 0.03 0.03 94 1017.5
20260901030744 15 206 0.0 0.0 0.00 0.03 0.03 94 1017.5
20260901030614 15 206 0.0 0.0 0.00 0.03 0.03 94 1017.5
20260901030536 15 206 0.0 0.0 0.00 0.03 0.03 94 1017.5
20260901030338 15 206 0.0 0.0 0.00 0.03 0.03 94 1017.6
20260901030300 15 206 0.0 0.0 0.00 0.03 0.03 94 1017.6
20260901030124 15 206 0.0 0.0 0.00 0.03 0.03 94 1017.6
20260901030040 15 206 0.0 0.0 0.00 0.03 0.03 94 1017.6
20260901025910 15 206 0.0 0.0 0.00 0.03 0.03 93 1017.6
20260901025832 15 206 0.0 0.0 0.00 0.03 0.03 93 1017.6
20260901025655 15 206 0.0 0.0 0.00 0.03 0.03 93 1017.7
20260901025621 15 206 0.0 0.0 0.00 0.03 0.03 93 1017.8
20260901025430 15 206 0.0 0.0 0.00 0.03 0.03 93 1017.8
20260901025317 15 206 0.0 0.0 0.00 0.03 0.03 93 1017.8
20260901025220 15 206 0.0 0.0 0.00 0.03 0.03 93 1017.8
20260901025121 15 206 0.0 0.0 0.00 0.03 0.03 93 1017.7
20260901024951 15 206 0.0 0.0 0.00 0.03 0.03 93 1017.7
20260901024855 15 206 0.0 0.0 0.00 0.03 0.03 93 1017.7
20260901024816 15 206 0.0 0.0 0.00 0.03 0.03 93 1017.7
20260901024647 15 206 0.0 0.0 0.00 0.03 0.03 93 1017.7
20260901024602 15 206 0.0 0.0 0.00 0.03 0.03 93 1017.7
20260901024437 15 206 0.0 0.0 0.00 0.03 0.03 93 1017.7
20260901024337 15 206 0.0 0.0 0.00 0.03 0.03 93 1017.7
20260901024148 15 206 0.0 0.0 0.00 0.03 0.03 93 1017.7
20260901024043 15 206 0.0 0.0 0.00 0.03 0.03 93 1017.7
20260901023912 15 206 0.0 0.0 0.00 0.03 0.03 93 1017.7
20260901023835 15 206 0.0 0.0 0.00 0.03 0.03 93 1017.7
20260901023638 15 206 0.0 0.0 0.00 0.03 0.03 93 1017.8
20260901023559 15 206 0.0 0.0 0.00 0.03 0.03 93 1017.9
20260901023423 15 206 0.0 0.0 0.00 0.03 0.03 93 1017.9
20260901023338 15 206 0.0 0.0 0.00 0.03 0.03 93 1017.9
20260901023211 15 206 0.0 0.0 0.00 0.03 0.03 93 1017.8
20260901023134 15 206 0.0 0.0 0.00 0.03 0.03 93 1017.8
20260901022938 15 206 0.0 0.0 0.00 0.03 0.03 93 1017.8
20260901022858 15 206 0.0 0.0 0.00 0.03 0.03 93 1017.8
20260901022740 15 206 0.0 0.0 0.00 0.03 0.03 93 1017.9
20260901022701 15 206 0.0 0.0 0.00 0.03 0.03 93 1017.9
20260901022525 15 206 0.0 0.0 0.00 0.03 0.03 93 1017.9
20260901022446 15 206 0.0 0.0 0.00 0.03 0.03 93 1017.8
20260901022306 15 206 0.0 0.0 0.00 0.03 0.03 93 1017.8
20260901022124 15 206 0.0 0.0 0.00 0.03 0.03 93 1017.8
20260901022027 15 206 0.0 0.0 0.00 0.03 0.03 93 1017.8
20260901021948 15 206 0.0 0.0 0.00 0.03 0.03 93 1017.8
20260901021847 15 206 0.0 0.0 0.00 0.03 0.03 93 1017.7
20260901021730 15 206 0.0 0.0 0.00 0.03 0.03 93 1017.7
20260901021626 15 206 0.0 0.0 0.00 0.03 0.03 93 1017.7
20260901021528 15 206 0.0 0.0 0.00 0.03 0.03 92 1017.7
20260901021444 15 206 0.0 0.0 0.00 0.03 0.03 92 1017.7
20260901021312 15 206 0.0 0.0 0.00 0.03 0.03 92 1017.6
20260901021217 15 206 0.0 0.0 0.00 0.03 0.03 92 1017.6
20260901021048 15 206 0.0 0.0 0.00 0.03 0.03 92 1017.6
20260901020941 15 206 0.0 0.0 0.00 0.03 0.03 92 1017.6
20260901020824 15 206 0.0 0.0 0.00 0.03 0.03 92 1017.7
20260901020744 15 206 0.0 0.0 0.00 0.03 0.03 92 1017.7
20260901020615 15 206 0.0 0.0 0.00 0.03 0.03 92 1017.6
20260901020530 15 206 0.0 0.0 0.00 0.03 0.03 92 1017.6
20260901020340 15 206 0.0 0.0 0.00 0.03 0.03 92 1017.6
20260901020235 15 206 0.0 0.0 0.00 0.03 0.03 92 1017.6
20260901020121 15 206 0.0 0.0 0.00 0.03 0.03 92 1017.6
20260901020025 15 206 0.0 0.0 0.00 0.03 0.03 92 1017.6
20260901015940 15 206 0.0 0.0 0.00 0.03 0.03 92 1017.6
20260901015809 15 206 0.0 0.0 0.00 0.03 0.03 92 1017.7
20260901015731 15 206 0.0 0.0 0.00 0.03 0.03 92 1017.7
20260901015535 15 206 0.0 0.0 0.00 0.03 0.03 92 1017.7
20260901015456 15 206 0.0 0.0 0.00 0.03 0.03 92 1017.7
20260901015340 15 206 0.0 0.0 0.00 0.03 0.03 92 1017.7
20260901015305 15 206 0.0 0.0 0.00 0.03 0.03 92 1017.7
20260901015114 15 206 0.0 0.0 0.00 0.03 0.03 92 1017.7
20260901015030 15 206 0.0 0.0 0.00 0.03 0.03 92 1017.7
20260901014841 15 206 0.0 0.0 0.00 0.03 0.03 92 1017.8
20260901014736 15 206 0.0 0.0 0.00 0.03 0.03 92 1017.7
20260901014658 15 206 0.0 0.0 0.00 0.03 0.03 92 1017.7
20260901014524 15 206 0.0 0.0 0.00 0.03 0.03 92 1017.7
20260901014428 15 206 0.0 0.0 0.00 0.03 0.03 92 1017.7
20260901014328 15 206 0.0 0.0 0.00 0.03 0.03 92 1017.7
20260901014248 15 206 0.0 0.0 0.00 0.03 0.03 92 1017.7
20260901014209 15 206 0.0 0.0 0.00 0.03 0.03 92 1017.6
20260901014131 15 206 0.0 0.0 0.00 0.03 0.03 92 1017.6
20260901013934 15 206 0.0 0.0 0.00 0.03 0.03 92 1017.6
20260901013857 15 206 0.0 0.0 0.00 0.03 0.03 92 1017.6
20260901013740 16 206 0.0 0.0 0.00 0.03 0.03 92 1017.6
20260901013659 16 206 0.0 0.0 0.00 0.03 0.03 92 1017.6
20260901013540 16 206 0.0 0.0 0.00 0.03 0.03 92 1017.7
20260901013501 16 206 0.0 0.0 0.00 0.03 0.03 91 1017.7
20260901013323 16 206 0.0 0.0 0.00 0.03 0.03 91 1017.7
20260901013228 16 206 0.0 0.0 0.00 0.03 0.03 91 1017.7
20260901013149 16 206 0.0 0.0 0.00 0.03 0.03 91 1017.7
20260901013052 16 206 0.0 0.0 0.00 0.03 0.03 91 1017.7
20260901013013 16 206 0.0 0.0 0.00 0.03 0.03 91 1017.7
20260901012935 16 206 0.0 0.0 0.00 0.03 0.03 91 1017.7
20260901012816 16 206 0.0 0.0 0.00 0.03 0.03 91 1017.7
20260901012738 16 206 0.0 0.0 0.00 0.03 0.03 91 1017.7
20260901012609 16 206 0.0 0.0 0.00 0.03 0.03 91 1017.6
20260901012523 16 206 0.0 0.0 0.00 0.03 0.03 91 1017.6
20260901012352 16 206 0.0 0.0 0.00 0.03 0.03 91 1017.7
20260901012252 16 206 0.0 0.0 0.00 0.03 0.03 91 1017.7
20260901012140 16 206 0.0 0.0 0.00 0.03 0.03 91 1017.7
20260901012101 16 206 0.0 0.0 0.00 0.03 0.03 91 1017.7
20260901011924 16 206 0.0 0.0 0.00 0.03 0.03 91 1017.7
20260901011845 16 206 0.0 0.0 0.00 0.03 0.03 91 1017.6
20260901011716 16 206 0.0 0.0 0.00 0.03 0.03 91 1017.6
20260901011631 16 206 0.0 0.0 0.00 0.03 0.03 91 1017.6
20260901011501 16 206 0.0 0.0 0.00 0.03 0.03 91 1017.6
20260901011423 16 206 0.0 0.0 0.00 0.03 0.03 91 1017.6
20260901011226 16 206 0.0 0.0 0.00 0.03 0.03 91 1017.6
20260901011148 16 206 0.0 0.0 0.00 0.03 0.03 91 1017.7
20260901011037 16 206 0.0 0.0 0.00 0.03 0.03 91 1017.6
20260901010958 16 206 0.0 0.0 0.00 0.03 0.03 91 1017.6
20260901010919 16 206 0.0 0.0 0.00 0.03 0.03 91 1017.7
20260901010801 16 206 0.0 0.0 0.00 0.03 0.03 91 1017.6
20260901010723 16 206 0.0 0.0 0.00 0.03 0.03 91 1017.6
20260901010527 16 206 0.0 1.6 0.00 0.03 0.03 91 1017.7
20260901010428 16 206 0.0 1.6 0.00 0.03 0.03 91 1017.7
20260901010332 16 206 0.0 1.6 0.00 0.03 0.03 91 1017.7
20260901010232 16 206 0.0 1.6 0.00 0.03 0.03 91 1017.7
20260901010017 16 206 0.0 1.6 0.00 0.03 0.03 90 1017.6
20260901005850 16 206 0.0 1.6 0.00 0.03 0.03 90 1017.6
20260901005812 16 206 0.0 1.6 0.00 0.03 0.03 90 1017.5
20260901005615 16 206 0.0 0.0 0.00 0.03 0.03 90 1017.5
20260901005536 16 206 0.0 0.0 0.00 0.03 0.03 90 1017.5
20260901005407 16 206 0.0 0.0 0.00 0.03 0.03 91 1017.5
20260901005307 16 206 0.0 0.0 0.00 0.03 0.03 91 1017.6
20260901005148 16 206 0.0 0.0 0.00 0.03 0.03 90 1017.5
20260901005028 16 206 0.0 0.0 0.00 0.03 0.03 90 1017.6
20260901004931 16 206 0.0 0.0 0.00 0.03 0.03 90 1017.6
20260901004852 16 206 0.0 0.0 0.00 0.03 0.03 90 1017.6
20260901004813 16 206 0.0 0.0 0.00 0.03 0.03 90 1017.6
20260901004715 16 206 0.0 1.6 0.00 0.03 0.03 90 1017.6
20260901004641 16 206 0.0 1.6 0.00 0.03 0.03 90 1017.6
20260901004511 16 206 0.0 1.6 0.00 0.03 0.03 90 1017.5
20260901004427 16 206 0.0 1.6 0.00 0.03 0.03 90 1017.5
20260901004256 16 206 0.0 1.6 0.00 0.03 0.03 90 1017.6
20260901004218 16 206 0.0 1.6 0.00 0.03 0.03 90 1017.6
20260901004049 17 206 0.0 1.6 0.00 0.03 0.03 90 1017.6
20260901003944 17 206 0.0 1.6 0.00 0.03 0.03 89 1017.6
20260901003826 17 206 0.0 1.6 0.00 0.03 0.03 89 1017.6
20260901003748 17 206 0.0 1.6 0.00 0.03 0.03 89 1017.6
20260901003710 17 206 0.0 1.6 0.00 0.03 0.03 89 1017.6
20260901003613 17 206 1.6 1.6 0.00 0.03 0.03 89 1017.6
20260901003538 17 206 1.6 1.6 0.00 0.03 0.03 89 1017.6
20260901003408 17 206 0.0 1.6 0.00 0.03 0.03 88 1017.6
20260901003240 17 206 0.0 1.6 0.00 0.03 0.03 89 1017.6
20260901003211 17 206 0.0 1.6 0.00 0.03 0.03 89 1017.6
20260901003116 17 206 0.0 1.6 0.00 0.03 0.03 88 1017.6
20260901003016 17 206 0.0 1.6 0.00 0.03 0.03 88 1017.6
20260901002847 17 206 0.0 1.6 0.00 0.03 0.03 88 1017.6
20260901002741 17 206 0.0 1.6 0.00 0.03 0.03 88 1017.6
20260901002625 17 206 1.6 1.6 0.00 0.03 0.03 88 1017.6
20260901002530 17 206 1.6 1.6 0.00 0.03 0.03 88 1017.6
20260901002451 17 206 1.6 1.6 0.00 0.03 0.03 88 1017.5
20260901002354 17 206 0.0 1.6 0.00 0.03 0.03 88 1017.5
20260901002316 17 206 0.0 0.0 0.00 0.03 0.03 88 1017.5
20260901002145 17 206 0.0 0.0 0.00 0.03 0.03 88 1017.5
20260901002040 17 206 0.0 0.0 0.00 0.03 0.03 88 1017.5
20260901002011 17 206 0.0 0.0 0.00 0.03 0.03 88 1017.5
20260901001915 17 206 0.0 0.0 0.00 0.03 0.03 88 1017.5
20260901001836 17 206 0.0 0.0 0.00 0.03 0.03 88 1017.5
20260901001706 17 206 0.0 0.0 0.00 0.03 0.03 88 1017.5
20260901001622 17 206 0.0 0.0 0.00 0.03 0.03 88 1017.5
20260901001452 17 206 0.0 0.0 0.00 0.03 0.03 87 1017.5
20260901001418 17 206 0.0 0.0 0.00 0.03 0.03 87 1017.5
20260901001248 17 206 0.0 0.0 0.00 0.03 0.03 87 1017.5
20260901001121 17 206 0.0 0.0 0.00 0.03 0.03 87 1017.6
20260901001044 17 206 0.0 0.0 0.00 0.03 0.03 87 1017.6
20260901000927 17 206 0.0 0.0 0.00 0.03 0.03 87 1017.6
20260901000901 17 206 0.0 0.0 0.00 0.03 0.03 87 1017.6
20260901000701 17 206 0.0 0.0 0.00 0.03 0.03 86 1017.6
20260901000541 17 206 0.0 0.0 0.00 0.03 0.03 87 1017.6
20260901000506 17 206 0.0 0.0 0.00 0.03 0.03 86 1017.6
20260901000428 17 206 0.0 0.0 0.00 0.03 0.03 86 1017.6
20260901000235 17 206 0.0 0.0 0.00 0.03 0.03 86 1017.6
20260901000138 17 206 0.0 0.0 0.00 0.03 0.03 86 1017.6
20260901000044 17 206 0.0 0.0 0.00 0.03 0.03 86 1017.6
20260831235942 17 206 0.0 0.0 0.00 0.03 0.03 86 1017.6
20260831235813 17 206 0.0 0.0 0.00 0.03 0.03 86 1017.5
20260831235727 17 206 0.0 0.0 0.00 0.03 0.03 86 1017.5
20260831235556 18 206 0.0 0.0 0.00 0.03 0.03 85 1017.5
20260831235519 18 206 0.0 0.0 0.00 0.03 0.03 85 1017.6
20260831235324 18 206 0.0 0.0 0.00 0.03 0.03 85 1017.5
20260831235228 18 206 0.0 0.0 0.00 0.03 0.03 85 1017.5
20260831235132 18 206 0.0 0.0 0.00 0.03 0.03 85 1017.5
20260831235053 18 206 0.0 0.0 0.00 0.03 0.03 85 1017.5
20260831235014 18 206 0.0 1.6 0.00 0.03 0.03 85 1017.6
20260831234919 18 206 0.0 3.2 0.00 0.03 0.03 84 1017.5
20260831234840 18 206 0.0 3.2 0.00 0.03 0.03 84 1017.5
20260831234649 18 206 0.0 3.2 0.00 0.03 0.03 84 1017.5
20260831234524 18 206 0.0 3.2 0.00 0.03 0.03 84 1017.5
20260831234427 18 206 0.0 3.2 0.00 0.03 0.03 84 1017.5
20260831234327 18 206 0.0 3.2 0.00 0.03 0.03 84 1017.5
20260831234136 18 206 1.6 3.2 0.00 0.03 0.03 83 1017.4
20260831234042 18 206 1.6 3.2 0.00 0.03 0.03 84 1017.4
20260831233825 18 206 0.0 1.6 0.00 0.03 0.03 84 1017.4
20260831233746 18 206 0.0 1.6 0.00 0.03 0.03 85 1017.4
20260831233629 18 206 0.0 0.0 0.00 0.03 0.03 84 1017.5
20260831233551 18 206 0.0 0.0 0.00 0.03 0.03 84 1017.4
20260831233412 19 206 0.0 0.0 0.00 0.03 0.03 84 1017.5
20260831233345 19 206 0.0 0.0 0.00 0.03 0.03 84 1017.4
20260831233129 19 206 0.0 0.0 0.00 0.03 0.03 84 1017.4
20260831233051 19 206 0.0 0.0 0.00 0.03 0.03 84 1017.4
20260831232957 19 206 0.0 0.0 0.00 0.03 0.03 84 1017.4
20260831232920 19 206 0.0 0.0 0.00 0.03 0.03 84 1017.4
20260831232730 19 206 0.0 0.0 0.00 0.03 0.03 83 1017.4
20260831232624 19 206 0.0 0.0 0.00 0.03 0.03 83 1017.3
20260831232546 19 206 0.0 0.0 0.00 0.03 0.03 83 1017.3
20260831232450 20 206 0.0 0.0 0.00 0.03 0.03 83 1017.3
20260831232412 20 206 0.0 0.0 0.00 0.03 0.03 83 1017.3
20260831232226 20 206 0.0 0.0 0.00 0.03 0.03 82 1017.4
20260831232129 20 206 0.0 0.0 0.00 0.03 0.03 82 1017.4
20260831232036 20 206 0.0 0.0 0.00 0.03 0.03 82 1017.3
20260831231936 20 206 0.0 0.0 0.00 0.03 0.03 82 1017.3
20260831231806 20 206 0.0 0.0 0.00 0.03 0.03 82 1017.3
20260831231720 20 206 0.0 0.0 0.00 0.03 0.03 82 1017.4
20260831231551 20 206 0.0 0.0 0.00 0.03 0.03 82 1017.4
20260831231512 20 206 0.0 0.0 0.00 0.03 0.03 82 1017.4
20260831231343 20 206 0.0 0.0 0.00 0.03 0.03 81 1017.4
20260831231234 20 206 0.0 0.0 0.00 0.03 0.03 81 1017.4
20260831231103 20 206 0.0 0.0 0.00 0.03 0.03 81 1017.4
20260831231026 20 206 0.0 0.0 0.00 0.03 0.03 81 1017.4
20260831230828 20 206 0.0 0.0 0.00 0.03 0.03 81 1017.4
20260831230748 21 206 0.0 0.0 0.00 0.03 0.03 81 1017.4
20260831230655 21 206 0.0 0.0 0.00 0.03 0.03 80 1017.4
20260831230555 21 206 0.0 0.0 0.00 0.03 0.03 80 1017.4
20260831230404 21 206 0.0 0.0 0.00 0.03 0.03 80 1017.5
20260831230319 21 206 0.0 0.0 0.00 0.03 0.03 79 1017.4
20260831230129 21 206 0.0 0.0 0.00 0.03 0.03 79 1017.4
20260831230046 21 206 0.0 0.0 0.00 0.03 0.03 79 1017.5
20260831225915 21 206 0.0 0.0 0.00 0.05 0.03 79 1017.5
20260831225837 21 206 0.0 0.0 0.00 0.05 0.03 79 1017.5
20260831225641 21 206 0.0 0.0 0.00 0.05 0.03 78 1017.5
20260831225543 21 206 0.0 0.0 0.00 0.05 0.03 79 1017.6
20260831225459 21 206 0.0 0.0 0.00 0.05 0.03 80 1017.5
20260831225229 21 206 0.0 0.0 0.00 0.05 0.03 78 1017.5
20260831225123 21 206 0.0 0.0 0.00 0.05 0.03 78 1017.5
20260831224932 21 206 0.0 0.0 0.00 0.05 0.03 77 1017.5
20260831224849 21 206 0.0 0.0 0.00 0.05 0.03 77 1017.6
20260831224717 21 206 0.0 0.0 0.00 0.05 0.03 77 1017.5
20260831224640 21 206 0.0 0.0 0.00 0.05 0.03 77 1017.5
20260831224503 21 206 0.0 0.0 0.00 0.05 0.03 76 1017.5
20260831224425 21 206 0.0 0.0 0.00 0.05 0.03 76 1017.5
20260831224235 21 206 0.0 0.0 0.00 0.05 0.03 77 1017.5
20260831224131 22 206 0.0 0.0 0.00 0.05 0.03 77 1017.5
20260831224053 22 206 0.0 0.0 0.00 0.05 0.03 77 1017.5
20260831223956 22 206 0.0 0.0 0.00 0.05 0.03 76 1017.5
20260831223857 22 206 0.0 0.0 0.00 0.05 0.03 75 1017.5
20260831223818 22 206 0.0 0.0 0.00 0.05 0.03 75 1017.5
20260831223710 22 206 0.0 0.0 0.00 0.05 0.03 75 1017.5
20260831223643 22 206 0.0 0.0 0.00 0.05 0.03 74 1017.5
20260831223425 22 206 0.0 0.0 0.00 0.05 0.03 74 1017.5
20260831223326 22 206 0.0 0.0 0.00 0.05 0.03 75 1017.5
20260831223230 22 206 0.0 0.0 0.00 0.05 0.03 75 1017.5
20260831223136 22 206 0.0 0.0 0.00 0.05 0.03 74 1017.5
20260831223057 22 206 0.0 0.0 0.00 0.05 0.03 73 1017.6
20260831222959 22 206 0.0 0.0 0.00 0.05 0.03 74 1017.5
20260831222922 22 206 0.0 0.0 0.00 0.05 0.03 74 1017.6
20260831222725 22 206 0.0 0.0 0.00 0.05 0.03 74 1017.6
20260831222627 22 206 0.0 0.0 0.00 0.05 0.03 73 1017.6
20260831222532 22 206 0.0 0.0 0.00 0.05 0.03 73 1017.6
20260831222454 22 206 0.0 0.0 0.00 0.05 0.03 71 1017.6
20260831222306 22 206 0.0 0.0 0.00 0.05 0.03 72 1017.6
20260831222218 22 206 0.0 0.0 0.00 0.05 0.03 72 1017.6
20260831222031 22 206 0.0 0.0 0.00 0.05 0.03 71 1017.6
20260831221952 22 206 0.0 0.0 0.00 0.05 0.03 70 1017.6
20260831221835 22 206 0.0 0.0 0.00 0.05 0.03 70 1017.6
20260831221756 22 206 0.0 0.0 0.00 0.05 0.03 70 1017.6
20260831221538 22 206 0.0 0.0 0.00 0.05 0.03 71 1017.6
20260831221440 22 206 0.0 0.0 0.00 0.05 0.03 70 1017.7
20260831221322 22 206 0.0 0.0 0.00 0.05 0.03 68 1017.7
20260831221244 22 206 0.0 0.0 0.00 0.05 0.03 68 1017.7
20260831221142 23 206 0.0 0.0 0.00 0.05 0.03 69 1017.7
20260831221026 23 206 0.0 0.0 0.00 0.05 0.03 68 1017.7
20260831220928 23 206 0.0 0.0 0.00 0.05 0.03 69 1017.6
20260831220823 23 206 0.0 0.0 0.00 0.05 0.03 68 1017.7
20260831220727 23 206 0.0 0.0 0.00 0.05 0.03 67 1017.7
20260831220629 23 206 0.0 0.0 0.00 0.05 0.03 67 1017.7
20260831220532 23 206 0.0 0.0 0.00 0.05 0.03 67 1017.7
20260831220454 23 206 0.0 0.0 0.00 0.05 0.03 67 1017.8
20260831220419 23 206 0.0 0.0 0.00 0.05 0.03 67 1017.8
20260831220321 23 206 0.0 0.0 0.00 0.05 0.03 68 1017.8
20260831220242 23 206 0.0 0.0 0.00 0.05 0.03 68 1017.8
20260831220112 23 206 0.0 0.0 0.00 0.05 0.03 66 1017.8
20260831220028 23 206 0.0 0.0 0.00 0.05 0.03 67 1017.8
20260831215857 23 206 0.0 0.0 0.00 0.05 0.03 63 1017.7
20260831215819 23 206 0.0 0.0 0.00 0.05 0.03 63 1017.7
20260831215650 23 206 0.0 1.6 0.00 0.05 0.03 66 1017.7
20260831215604 23 206 0.0 3.2 0.00 0.05 0.03 66 1017.6
20260831215412 24 206 0.0 4.8 0.00 0.05 0.03 65 1017.6
20260831215332 24 206 0.0 4.8 0.00 0.05 0.03 63 1017.6
20260831215214 24 206 0.0 4.8 0.00 0.05 0.03 62 1017.5
20260831215137 24 206 0.0 6.4 0.00 0.05 0.03 62 1017.5
20260831215009 25 206 0.0 6.4 0.00 0.05 0.03 61 1017.5
20260831214925 25 206 0.0 6.4 0.00 0.05 0.03 61 1017.5
20260831214734 25 206 1.6 6.4 0.00 0.05 0.03 60 1017.5
20260831214648 25 206 3.2 6.4 0.00 0.05 0.03 61 1017.6
20260831214547 25 219 3.2 6.4 0.00 0.05 0.03 60 1017.6
20260831214447 25 190 3.2 6.4 0.00 0.05 0.03 55 1017.6
20260831214348 25 179 3.2 6.4 0.00 0.05 0.03 55 1017.6
20260831214229 25 213 1.6 6.4 0.00 0.05 0.03 57 1017.6
20260831214152 25 171 1.6 6.4 0.00 0.05 0.03 57 1017.6
20260831213933 25 191 4.8 6.4 0.00 0.05 0.03 55 1017.7
20260831213856 25 182 4.8 6.4 0.00 0.05 0.03 55 1017.7
20260831213800 25 207 4.8 6.4 0.00 0.05 0.03 55 1017.7
20260831213720 25 184 3.2 6.4 0.00 0.05 0.03 55 1017.7
20260831213548 25 234 0.0 3.2 0.00 0.05 0.03 63 1017.7
20260831213423 25 300 0.0 3.2 0.00 0.05 0.03 64 1017.7
20260831213326 25 300 0.0 3.2 0.00 0.05 0.03 64 1017.7
20260831213227 25 300 0.0 3.2 0.00 0.05 0.03 63 1017.7
20260831213031 25 300 1.6 3.2 0.00 0.05 0.03 59 1017.7
20260831212933 25 300 3.2 3.2 0.00 0.05 0.03 61 1017.7
20260831212829 25 300 3.2 3.2 0.00 0.05 0.03 60 1017.7
20260831212751 25 300 3.2 3.2 0.00 0.05 0.03 62 1017.7
20260831212532 25 242 1.6 3.2 0.00 0.05 0.03 58 1017.6
20260831212454 25 225 1.6 3.2 0.00 0.05 0.03 58 1017.7
20260831212356 25 174 0.0 0.0 0.00 0.05 0.03 59 1017.7
20260831212236 25 174 0.0 0.0 0.00 0.05 0.03 56 1017.6
20260831212157 25 174 0.0 0.0 0.00 0.05 0.03 60 1017.6
20260831212059 25 174 0.0 0.0 0.00 0.05 0.03 60 1017.6
20260831212022 25 174 0.0 0.0 0.00 0.05 0.03 56 1017.7
20260831211828 25 174 0.0 3.2 0.00 0.05 0.03 57 1017.7
20260831211729 25 174 0.0 4.8 0.00 0.05 0.03 57 1017.7
20260831211632 25 174 0.0 4.8 0.00 0.05 0.03 56 1017.7
20260831211554 25 174 0.0 4.8 0.00 0.05 0.03 57 1017.8
20260831211338 25 174 0.0 4.8 0.00 0.05 0.03 57 1017.8
20260831211239 25 174 0.0 4.8 0.00 0.05 0.03 56 1017.8
20260831211142 25 174 1.6 4.8 0.00 0.05 0.03 55 1017.8
20260831211043 25 174 1.6 4.8 0.00 0.05 0.03 55 1017.9
20260831210942 26 174 3.2 4.8 0.00 0.05 0.03 53 1017.9
20260831210836 26 174 3.2 4.8 0.00 0.05 0.03 53 1017.9
20260831210737 26 174 3.2 4.8 0.00 0.05 0.03 53 1017.9
20260831210640 26 150 1.6 8.0 0.00 0.05 0.03 54 1017.9
20260831210540 26 182 1.6 8.0 0.00 0.05 0.03 56 1017.9
20260831210410 26 182 0.0 8.0 0.00 0.05 0.03 57 1017.9
20260831210324 26 182 0.0 8.0 0.00 0.05 0.03 56 1017.9
20260831210155 26 182 0.0 8.0 0.00 0.05 0.03 57 1017.9
20260831210117 26 182 0.0 8.0 0.00 0.05 0.03 57 1017.9
20260831205948 26 182 3.2 8.0 0.00 0.05 0.03 52 1018.0
20260831205840 26 182 4.8 8.0 0.00 0.05 0.03 54 1017.9
20260831205713 26 125 3.2 6.4 0.00 0.05 0.03 52 1017.9
20260831205636 26 144 3.2 6.4 0.00 0.05 0.03 53 1017.9
20260831205459 26 150 3.2 6.4 0.00 0.05 0.03 53 1017.9
20260831205421 26 124 1.6 6.4 0.00 0.05 0.03 54 1017.9
20260831205231 26 209 1.6 3.2 0.00 0.05 0.03 51 1018.0
20260831205146 26 209 1.6 4.8 0.00 0.05 0.03 51 1018.0
20260831205016 26 132 0.0 4.8 0.00 0.05 0.03 51 1017.9
20260831204938 26 132 0.0 4.8 0.00 0.05 0.03 51 1017.9
20260831204740 26 132 0.0 4.8 0.00 0.05 0.03 55 1017.9
20260831204700 26 132 0.0 4.8 0.00 0.05 0.03 52 1017.9
20260831204528 26 132 1.6 4.8 0.00 0.05 0.03 54 1017.9
20260831204443 26 132 1.6 4.8 0.00 0.05 0.03 54 1017.9
20260831204313 26 134 1.6 3.2 0.00 0.05 0.03 55 1017.8
20260831204236 26 152 1.6 3.2 0.00 0.05 0.03 54 1017.8
20260831204038 26 94 1.6 3.2 0.00 0.05 0.03 53 1017.9
20260831204000 26 94 1.6 3.2 0.00 0.05 0.03 51 1017.8
20260831203902 26 86 0.0 3.2 0.00 0.05 0.03 52 1017.8
20260831203824 26 86 0.0 1.6 0.00 0.05 0.03 52 1017.8
20260831203635 25 86 0.0 3.2 0.00 0.05 0.03 54 1017.8
20260831203514 25 86 0.0 3.2 0.00 0.05 0.03 53 1017.8
20260831203425 25 86 0.0 3.2 0.00 0.05 0.03 53 1017.8
20260831203348 25 86 0.0 3.2 0.00 0.05 0.03 53 1017.8
20260831203217 25 60 0.0 4.8 0.00 0.05 0.03 51 1017.8
20260831203134 25 60 0.0 4.8 0.00 0.05 0.03 51 1017.8
20260831202944 25 60 0.0 4.8 0.00 0.05 0.03 53 1017.9
20260831202859 25 60 1.6 4.8 0.00 0.05 0.03 51 1017.9
20260831202730 25 60 1.6 4.8 0.00 0.05 0.03 51 1017.9
20260831202631 25 76 1.6 4.8 0.00 0.05 0.03 51 1017.9
20260831202435 25 182 3.2 4.8 0.00 0.05 0.03 54 1017.9
20260831202341 25 212 3.2 4.8 0.00 0.05 0.03 56 1017.9
20260831202243 25 101 3.2 4.8 0.00 0.05 0.03 53 1017.9
20260831202205 25 103 3.2 4.8 0.00 0.05 0.03 53 1017.8
20260831202046 25 113 1.6 6.4 0.00 0.05 0.03 53 1017.8
20260831201940 25 154 0.0 6.4 0.00 0.05 0.03 51 1017.9
20260831201758 25 154 1.6 6.4 0.00 0.05 0.03 52 1017.8
20260831201658 25 154 3.2 8.0 0.00 0.05 0.03 53 1017.9
20260831201601 25 160 1.6 8.0 0.00 0.05 0.03 51 1017.9
20260831201523 25 169 3.2 8.0 0.00 0.05 0.03 55 1017.9
20260831201352 25 165 3.2 8.0 0.00 0.05 0.03 53 1018.0
20260831201306 25 194 3.2 9.7 0.00 0.05 0.03 57 1017.9
20260831201116 25 190 3.2 9.7 0.00 0.05 0.03 54 1018.0
20260831201042 25 175 3.2 9.7 0.00 0.05 0.03 54 1018.0
20260831200912 25 171 4.8 9.7 0.00 0.05 0.03 52 1017.9
20260831200827 25 187 4.8 9.7 0.00 0.05 0.03 51 1017.9
20260831200657 26 151 6.4 9.7 0.00 0.05 0.03 51 1017.9
20260831200619 26 174 6.4 9.7 0.00 0.05 0.03 51 1017.9
20260831200423 26 150 3.2 8.0 0.00 0.05 0.03 52 1017.9
20260831200344 26 213 3.2 6.4 0.00 0.05 0.03 52 1017.9
20260831200248 26 211 1.6 8.0 0.00 0.05 0.03 52 1018.0
20260831200129 26 278 1.6 8.0 0.00 0.05 0.03 53 1018.0
20260831200031 26 298 3.2 8.0 0.00 0.05 0.03 51 1018.0
20260831195936 26 313 3.2 8.0 0.00 0.05 0.03 53 1018.0
20260831195858 26 269 3.2 8.0 0.00 0.08 0.03 54 1018.1
20260831195800 26 308 3.2 8.0 0.00 0.08 0.03 52 1018.1
20260831195732 26 282 4.8 8.0 0.00 0.08 0.03 51 1018.1
20260831195602 26 271 3.2 8.0 0.00 0.08 0.03 54 1018.2
20260831195518 26 243 4.8 8.0 0.00 0.08 0.03 52 1018.2
20260831195328 26 267 3.2 8.0 0.00 0.08 0.03 52 1018.2
20260831195242 26 286 1.6 8.0 0.00 0.08 0.03 54 1018.3
20260831195142 26 198 1.6 8.0 0.00 0.08 0.03 52 1018.3
20260831195057 26 209 3.2 8.0 0.00 0.08 0.03 53 1018.4
20260831194958 26 209 4.8 8.0 0.00 0.08 0.03 52 1018.4
20260831194832 26 222 1.6 6.4 0.00 0.08 0.03 52 1018.4
20260831194725 26 226 3.2 6.4 0.00 0.08 0.03 52 1018.4
20260831194556 25 226 3.2 6.4 0.00 0.08 0.03 53 1018.5
20260831194518 25 177 1.6 6.4 0.00 0.08 0.03 52 1018.5
20260831194438 25 272 0.0 6.4 0.00 0.08 0.03 53 1018.5
20260831194320 25 272 1.6 6.4 0.00 0.08 0.03 52 1018.5
20260831194241 25 272 1.6 6.4 0.00 0.08 0.03 52 1018.5
20260831194110 25 31 1.6 6.4 0.00 0.08 0.03 51 1018.5
20260831194026 25 234 1.6 6.4 0.00 0.08 0.03 51 1018.5
20260831193856 25 234 3.2 6.4 0.00 0.08 0.03 51 1018.5
20260831193816 26 234 4.8 6.4 0.00 0.08 0.03 50 1018.6
20260831193658 26 239 4.8 6.4 0.00 0.08 0.03 54 1018.6
20260831193621 26 219 3.2 6.4 0.00 0.08 0.03 55 1018.6
20260831193436 26 304 1.6 4.8 0.00 0.08 0.03 53 1018.6
20260831193330 26 260 3.2 4.8 0.00 0.08 0.03 52 1018.7
20260831193251 25 252 1.6 4.8 0.00 0.08 0.03 52 1018.7
20260831193153 25 255 1.6 4.8 0.00 0.08 0.03 55 1018.7
20260831193052 25 167 0.0 4.8 0.00 0.08 0.03 53 1018.7
20260831193013 25 167 1.6 6.4 0.00 0.08 0.03 55 1018.6
20260831192855 25 109 1.6 6.4 0.00 0.08 0.03 58 1018.7
20260831192817 25 146 1.6 6.4 0.00 0.08 0.03 55 1018.7
20260831192647 25 146 1.6 6.4 0.00 0.08 0.03 55 1018.7
20260831192526 25 220 3.2 6.4 0.00 0.08 0.03 54 1018.7
20260831192430 25 220 3.2 6.4 0.00 0.08 0.03 55 1018.7
20260831192401 25 220 3.2 6.4 0.00 0.08 0.03 53 1018.7
20260831192224 25 217 3.2 6.4 0.00 0.08 0.03 54 1018.7
20260831192145 25 209 3.2 6.4 0.00 0.08 0.03 58 1018.8
20260831192014 25 101 1.6 4.8 0.00 0.08 0.03 55 1018.8
20260831191930 25 113 1.6 4.8 0.00 0.08 0.03 55 1018.8
20260831191759 25 113 1.6 4.8 0.00 0.08 0.03 56 1018.9
20260831191721 25 113 1.6 4.8 0.00 0.08 0.03 55 1018.9
20260831191549 25 113 0.0 4.8 0.00 0.08 0.03 58 1018.9
20260831191443 25 188 0.0 1.6 0.00 0.08 0.03 56 1018.9
20260831191408 24 188 0.0 1.6 0.00 0.08 0.03 57 1018.9
20260831191313 24 188 0.0 1.6 0.00 0.08 0.03 57 1018.9
20260831191234 24 188 0.0 1.6 0.00 0.08 0.03 57 1018.9
20260831191104 24 188 0.0 3.2 0.00 0.08 0.03 58 1018.9
20260831191020 24 188 0.0 3.2 0.00 0.08 0.03 55 1019.0
20260831190830 25 188 0.0 6.4 0.00 0.08 0.03 58 1019.0
20260831190723 25 188 0.0 6.4 0.00 0.08 0.03 57 1019.0
20260831190645 25 188 0.0 6.4 0.00 0.08 0.03 55 1019.0
20260831190600 25 188 0.0 6.4 0.00 0.08 0.03 59 1019.0
20260831190521 25 188 0.0 6.4 0.00 0.08 0.03 55 1019.0
20260831190351 25 188 1.6 6.4 0.00 0.08 0.03 55 1019.0
20260831190317 25 188 1.6 6.4 0.00 0.08 0.03 55 1019.0
20260831190141 25 188 4.8 6.4 0.00 0.08 0.03 55 1018.9
20260831190042 25 193 6.4 6.4 0.00 0.08 0.03 53 1018.9
20260831185947 25 150 4.8 8.0 0.00 0.08 0.03 56 1018.9
20260831185847 25 163 3.2 8.0 0.00 0.08 0.03 54 1018.9
20260831185716 25 189 1.6 8.0 0.00 0.08 0.03 54 1018.9
20260831185631 25 122 1.6 8.0 0.00 0.08 0.03 55 1018.9
20260831185502 25 155 3.2 8.0 0.00 0.08 0.03 55 1018.9
20260831185424 25 175 1.6 8.0 0.00 0.08 0.03 53 1018.9
20260831185254 25 181 1.6 8.0 0.00 0.08 0.03 55 1018.9
20260831185207 25 156 3.2 8.0 0.00 0.08 0.03 55 1018.9
20260831185015 25 123 3.2 9.7 0.00 0.08 0.03 56 1018.9
20260831184942 25 185 4.8 9.7 0.00 0.08 0.03 53 1018.9
20260831184724 25 155 3.2 8.0 0.00 0.08 0.03 55 1018.9
20260831184625 25 146 4.8 8.0 0.00 0.08 0.03 54 1018.9
20260831184540 25 144 3.2 8.0 0.00 0.08 0.03 54 1018.9
20260831184440 25 151 1.6 8.0 0.00 0.08 0.03 57 1018.9
20260831184344 25 326 1.6 12.9 0.00 0.08 0.03 55 1018.9
20260831184306 25 322 3.2 12.9 0.00 0.08 0.03 53 1018.9
20260831184135 25 355 3.2 12.9 0.00 0.08 0.03 57 1019.0
20260831184029 25 340 4.8 12.9 0.00 0.08 0.03 54 1019.0
20260831183858 25 360 4.8 12.9 0.00 0.08 0.03 58 1019.0
20260831183821 25 355 3.2 12.9 0.00 0.08 0.03 58 1019.0
20260831183627 25 360 3.2 12.9 0.00 0.08 0.03 57 1019.0
20260831183528 25 13 3.2 12.9 0.00 0.08 0.03 55 1019.0
20260831183441 25 26 1.6 6.4 0.00 0.08 0.03 59 1019.0
20260831183402 25 335 1.6 6.4 0.00 0.08 0.03 56 1018.9
20260831183226 25 157 1.6 6.4 0.00 0.08 0.03 57 1019.0
20260831183148 25 163 1.6 8.0 0.00 0.08 0.03 55 1019.0
20260831183018 25 146 3.2 8.0 0.00 0.08 0.03 53 1019.0
20260831182933 25 146 4.8 8.0 0.00 0.08 0.03 54 1019.0
20260831182752 25 196 1.6 11.3 0.00 0.08 0.03 53 1019.0
20260831182651 25 283 1.6 11.3 0.00 0.08 0.03 52 1019.0
20260831182541 25 245 1.6 14.5 0.00 0.08 0.03 55 1019.0
20260831182503 25 244 3.2 14.5 0.00 0.08 0.03 54 1019.0
20260831182306 25 194 4.8 14.5 0.00 0.08 0.03 56 1019.1
20260831182227 25 167 4.8 14.5 0.00 0.08 0.03 56 1019.1
20260831182038 25 123 6.4 14.5 0.00 0.08 0.03 55 1019.1
20260831181931 25 167 3.2 14.5 0.00 0.08 0.03 53 1019.1
20260831181833 25 286 6.4 14.5 0.00 0.08 0.03 52 1019.1
20260831181733 25 292 6.4 14.5 0.00 0.08 0.03 54 1019.1
20260831181544 25 334 3.2 8.0 0.00 0.08 0.03 52 1019.2
20260831181441 25 281 3.2 8.0 0.00 0.08 0.03 51 1019.2
20260831181328 25 281 3.2 8.0 0.00 0.08 0.03 51 1019.2
20260831181250 25 251 4.8 8.0 0.00 0.08 0.03 51 1019.2
20260831181121 25 217 1.6 8.0 0.00 0.08 0.03 52 1019.2
20260831181036 25 150 0.0 12.9 0.00 0.08 0.03 54 1019.2
20260831180905 25 136 3.2 12.9 0.00 0.08 0.03 52 1019.3
20260831180827 25 136 3.2 12.9 0.00 0.08 0.03 52 1019.3
20260831180631 25 332 3.2 12.9 0.00 0.08 0.03 54 1019.3
20260831180526 25 355 4.8 12.9 0.00 0.08 0.03 54 1019.3
20260831180450 25 346 4.8 12.9 0.00 0.08 0.03 52 1019.4
20260831180350 25 342 6.4 12.9 0.00 0.08 0.03 55 1019.5
20260831180312 25 301 8.0 12.9 0.00 0.08 0.03 54 1019.5
20260831180154 25 343 6.4 12.9 0.00 0.08 0.03 54 1019.5
20260831180117 25 323 3.2 9.7 0.00 0.08 0.03 52 1019.5
20260831175947 25 271 3.2 8.0 0.00 0.08 0.03 57 1019.5
20260831175823 25 334 4.8 12.9 0.00 0.08 0.03 57 1019.5
20260831175726 25 340 4.8 12.9 0.00 0.08 0.03 53 1019.5
20260831175648 25 327 6.4 12.9 0.00 0.08 0.03 55 1019.5
20260831175621 25 342 4.8 12.9 0.00 0.08 0.03 54 1019.5
20260831175427 25 319 4.8 16.1 0.00 0.08 0.03 54 1019.5
20260831175350 25 275 4.8 16.1 0.00 0.08 0.03 54 1019.5
20260831175232 25 215 6.4 16.1 0.00 0.08 0.03 53 1019.5
20260831175153 25 328 6.4 16.1 0.00 0.08 0.03 52 1019.6
20260831175116 25 22 6.4 16.1 0.00 0.08 0.03 54 1019.6
20260831175020 25 256 4.8 16.1 0.00 0.08 0.03 55 1019.6
20260831174943 25 290 4.8 16.1 0.00 0.08 0.03 55 1019.6
20260831174812 24 218 4.8 16.1 0.00 0.08 0.03 52 1019.5
20260831174728 24 251 8.0 16.1 0.00 0.08 0.03 55 1019.5
20260831174558 24 325 6.4 16.1 0.00 0.08 0.03 56 1019.5
20260831174456 24 331 4.8 9.7 0.00 0.08 0.03 54 1019.5
20260831174359 24 315 3.2 9.7 0.00 0.08 0.03 58 1019.6
20260831174244 24 155 1.6 9.7 0.00 0.08 0.03 60 1019.6
20260831174127 24 157 3.2 9.7 0.00 0.08 0.03 59 1019.5
20260831174047 24 125 3.2 9.7 0.00 0.08 0.03 58 1019.6
20260831173931 24 74 3.2 9.7 0.00 0.08 0.03 59 1019.6
20260831173833 24 133 4.8 11.3 0.00 0.08 0.03 58 1019.6
20260831173754 24 136 4.8 11.3 0.00 0.08 0.03 57 1019.6
20260831173657 24 150 4.8 11.3 0.00 0.08 0.03 56 1019.6
20260831173620 24 144 4.8 11.3 0.00 0.08 0.03 53 1019.6
20260831173449 24 173 1.6 11.3 0.00 0.08 0.03 56 1019.6
20260831173327 24 133 1.6 11.3 0.00 0.08 0.03 56 1019.6
20260831173230 24 133 3.2 11.3 0.00 0.08 0.03 59 1019.6
20260831173151 24 133 4.8 11.3 0.00 0.08 0.03 59 1019.7
20260831173112 24 134 6.4 11.3 0.00 0.08 0.03 59 1019.6
20260831173016 24 135 8.0 11.3 0.00 0.08 0.03 62 1019.7
20260831172937 24 129 8.0 11.3 0.00 0.08 0.03 61 1019.7
20260831172808 24 226 6.4 11.3 0.00 0.08 0.03 59 1019.6
20260831172722 24 225 6.4 9.7 0.00 0.08 0.03 59 1019.6
20260831172533 24 224 1.6 8.0 0.00 0.08 0.03 63 1019.7
20260831172448 24 329 0.0 8.0 0.00 0.08 0.03 64 1019.7
20260831172256 24 328 3.2 11.3 0.00 0.08 0.03 62 1019.7
20260831172201 24 328 4.8 11.3 0.00 0.08 0.03 63 1019.7
20260831172030 23 306 3.2 11.3 0.00 0.08 0.03 63 1019.7
20260831171925 23 325 1.6 11.3 0.00 0.08 0.03 63 1019.7
20260831171734 23 304 4.8 11.3 0.00 0.08 0.03 64 1019.6
20260831171650 23 299 3.2 11.3 0.00 0.08 0.03 63 1019.7
20260831171519 23 126 6.4 11.3 0.00 0.08 0.03 63 1019.7
20260831171420 23 148 8.0 12.9 0.00 0.08 0.03 63 1019.7
20260831171223 23 168 3.2 11.3 0.00 0.08 0.03 63 1019.7
20260831171144 23 183 4.8 11.3 0.00 0.08 0.03 61 1019.7
20260831171028 23 123 6.4 11.3 0.00 0.08 0.03 62 1019.6
20260831170953 23 146 4.8 9.7 0.00 0.08 0.03 64 1019.7
20260831170802 23 139 4.8 9.7 0.00 0.08 0.03 63 1019.7
20260831170716 23 153 4.8 9.7 0.00 0.08 0.03 63 1019.7
20260831170525 23 169 3.2 8.0 0.00 0.08 0.03 64 1019.7
20260831170419 23 159 1.6 8.0 0.00 0.08 0.03 63 1019.7
20260831170351 23 183 3.2 8.0 0.00 0.08 0.03 63 1019.8
20260831170255 23 174 4.8 8.0 0.00 0.08 0.03 63 1019.8
20260831170216 23 188 3.2 8.0 0.00 0.08 0.03 64 1019.8
20260831170046 23 248 3.2 6.4 0.00 0.08 0.03 64 1019.8
20260831165925 23 232 3.2 6.4 0.00 0.08 0.03 66 1019.8
20260831165830 23 219 3.2 11.3 0.00 0.08 0.03 67 1019.8
20260831165731 23 145 3.2 11.3 0.00 0.08 0.03 67 1019.8
20260831165542 22 254 3.2 11.3 0.00 0.08 0.03 66 1019.8
20260831165435 22 178 3.2 11.3 0.00 0.08 0.03 65 1019.8
20260831165357 22 272 3.2 11.3 0.00 0.08 0.03 67 1019.8
20260831165301 22 178 1.6 11.3 0.00 0.08 0.03 67 1019.8
20260831165223 22 159 3.2 11.3 0.00 0.08 0.03 67 1019.8
20260831165054 22 146 8.0 11.3 0.00 0.08 0.03 67 1019.8
20260831165009 22 161 8.0 12.9 0.00 0.08 0.03 68 1019.9
20260831164840 22 298 4.8 9.7 0.00 0.08 0.03 69 1019.9
20260831164744 22 257 3.2 9.7 0.00 0.08 0.03 69 1019.9
20260831164610 22 327 4.8 9.7 0.00 0.08 0.03 69 1019.9
20260831164524 22 315 4.8 9.7 0.00 0.08 0.03 68 1019.9
20260831164334 22 242 4.8 12.9 0.00 0.08 0.03 69 1020.0
20260831164248 22 176 3.2 12.9 0.00 0.08 0.03 69 1019.9
20260831164117 22 277 3.2 12.9 0.00 0.08 0.03 70 1020.0
20260831164040 22 277 3.2 12.9 0.00 0.08 0.03 69 1020.0
20260831163842 22 334 1.6 12.9 0.00 0.08 0.03 70 1019.9
20260831163803 22 308 1.6 12.9 0.00 0.08 0.03 70 1019.9
20260831163706 22 227 4.8 12.9 0.00 0.08 0.03 69 1020.0
20260831163629 22 218 6.4 12.9 0.00 0.08 0.03 69 1020.0
20260831163501 22 212 6.4 12.9 0.00 0.08 0.03 68 1020.0
20260831163416 22 187 4.8 11.3 0.00 0.08 0.03 67 1020.0
20260831163225 22 254 3.2 11.3 0.00 0.08 0.03 69 1020.0
20260831163141 22 224 3.2 11.3 0.00 0.08 0.03 69 1020.0
20260831163009 22 219 6.4 11.3 0.00 0.08 0.03 67 1020.1
20260831162932 22 200 4.8 11.3 0.00 0.08 0.03 66 1020.1
20260831162754 22 176 3.2 9.7 0.00 0.08 0.03 67 1020.1
20260831162716 22 176 4.8 9.7 0.00 0.08 0.03 65 1020.1
20260831162526 22 173 3.2 8.0 0.00 0.08 0.03 69 1020.1
20260831162440 22 217 3.2 8.0 0.00 0.08 0.03 68 1020.1
20260831162308 22 154 4.8 9.7 0.00 0.08 0.03 69 1020.1
20260831162234 22 159 4.8 9.7 0.00 0.08 0.03 69 1020.1
20260831162037 22 310 4.8 9.7 0.00 0.08 0.03 69 1020.2
20260831161958 22 325 3.2 9.7 0.00 0.08 0.03 69 1020.2
20260831161841 22 236 3.2 9.7 0.00 0.08 0.03 67 1020.2
20260831161802 22 242 3.2 14.5 0.00 0.08 0.03 70 1020.2
20260831161645 22 191 4.8 14.5 0.00 0.08 0.03 67 1020.3
20260831161546 22 265 4.8 14.5 0.00 0.08 0.03 67 1020.3
20260831161416 22 211 3.2 14.5 0.00 0.08 0.03 70 1020.3
20260831161330 22 221 1.6 14.5 0.00 0.08 0.03 69 1020.3
20260831161140 22 224 4.8 16.1 0.00 0.08 0.03 68 1020.4
20260831161104 22 223 9.7 16.1 0.00 0.08 0.03 66 1020.4
20260831160947 22 164 9.7 16.1 0.00 0.08 0.03 67 1020.4
20260831160907 22 172 8.0 16.1 0.00 0.08 0.03 67 1020.3
20260831160828 22 191 6.4 16.1 0.00 0.08 0.03 67 1020.3
20260831160709 22 184 8.0 16.1 0.00 0.08 0.03 68 1020.4
20260831160631 22 192 9.7 16.1 0.00 0.08 0.03 68 1020.4
20260831160433 22 155 8.0 16.1 0.00 0.08 0.03 70 1020.4
20260831160336 22 177 8.0 16.1 0.00 0.08 0.03 68 1020.4
20260831160239 22 248 6.4 12.9 0.00 0.08 0.03 67 1020.5
20260831160141 22 194 8.0 16.1 0.00 0.08 0.03 70 1020.5
20260831160010 22 273 4.8 11.3 0.00 0.08 0.03 69 1020.4
20260831155915 22 298 3.2 9.7 0.00 0.08 0.03 69 1020.5
20260831155737 22 251 3.2 9.7 0.00 0.08 0.03 70 1020.5
20260831155642 22 119 3.2 9.7 0.00 0.08 0.03 69 1020.5
20260831155524 22 303 3.2 9.7 0.00 0.08 0.03 69 1020.5
20260831155424 22 264 3.2 9.7 0.00 0.08 0.03 68 1020.5
20260831155346 22 245 3.2 9.7 0.00 0.08 0.03 68 1020.6
20260831155248 22 216 3.2 9.7 0.00 0.08 0.03 68 1020.6
20260831155148 22 284 4.8 9.7 0.00 0.08 0.03 68 1020.6
20260831155110 22 286 3.2 9.7 0.00 0.08 0.03 69 1020.6
20260831155017 22 149 1.6 9.7 0.00 0.08 0.03 70 1020.6
20260831154917 22 279 1.6 8.0 0.00 0.08 0.03 70 1020.5
20260831154746 22 298 3.2 8.0 0.00 0.08 0.03 69 1020.5
20260831154640 22 277 3.2 8.0 0.00 0.08 0.03 68 1020.5
20260831154525 22 342 1.6 8.0 0.00 0.08 0.03 70 1020.5
20260831154444 22 341 1.6 8.0 0.00 0.08 0.03 70 1020.5
20260831154406 22 19 3.2 8.0 0.00 0.08 0.03 70 1020.6
20260831154309 22 66 4.8 9.7 0.00 0.08 0.03 69 1020.5
20260831154232 22 236 4.8 9.7 0.00 0.08 0.03 69 1020.5
20260831154036 22 284 3.2 9.7 0.00 0.08 0.03 67 1020.5
20260831154001 22 259 4.8 9.7 0.00 0.08 0.03 67 1020.5
20260831153832 22 302 6.4 9.7 0.00 0.08 0.03 69 1020.5
20260831153732 22 298 6.4 9.7 0.00 0.08 0.03 69 1020.5
20260831153536 22 292 6.4 14.5 0.00 0.08 0.03 66 1020.5
20260831153456 22 290 4.8 14.5 0.00 0.08 0.03 68 1020.5
20260831153341 22 336 3.2 14.5 0.00 0.08 0.03 70 1020.5
20260831153249 22 324 1.6 14.5 0.00 0.08 0.03 69 1020.5
20260831153153 22 322 3.2 14.5 0.00 0.08 0.03 72 1020.5
20260831153036 22 319 3.2 14.5 0.00 0.08 0.03 68 1020.4
20260831152940 22 355 3.2 14.5 0.00 0.08 0.03 72 1020.4
20260831152905 22 332 4.8 14.5 0.00 0.08 0.03 68 1020.5
20260831152838 22 292 6.4 14.5 0.00 0.08 0.03 70 1020.5
20260831152708 22 327 4.8 12.9 0.00 0.08 0.03 69 1020.4
20260831152541 22 229 4.8 8.0 0.00 0.08 0.03 71 1020.4
20260831152426 22 161 3.2 8.0 0.00 0.08 0.03 71 1020.4
20260831152347 22 215 3.2 8.0 0.00 0.08 0.03 72 1020.4
20260831152319 22 15 3.2 8.0 0.00 0.08 0.03 75 1020.4
20260831152142 22 348 4.8 8.0 0.00 0.08 0.03 71 1020.4
20260831152043 22 360 4.8 8.0 0.00 0.08 0.03 75 1020.3
20260831151946 22 330 4.8 8.0 0.00 0.08 0.03 77 1020.4
20260831151913 22 321 3.2 8.0 0.00 0.08 0.03 75 1020.4
20260831151721 22 13 1.6 8.0 0.00 0.08 0.03 74 1020.5
20260831151637 22 117 0.0 8.0 0.00 0.08 0.03 75 1020.5
20260831151445 21 242 3.2 8.0 0.00 0.08 0.03 73 1020.5
20260831151344 21 242 4.8 8.0 0.00 0.08 0.03 72 1020.5
20260831151307 21 231 6.4 8.0 0.00 0.08 0.03 73 1020.5
20260831151209 22 218 3.2 8.0 0.00 0.08 0.03 74 1020.5
20260831151131 22 192 3.2 6.4 0.00 0.08 0.03 76 1020.5
20260831150934 21 10 3.2 6.4 0.00 0.08 0.03 74 1020.5
20260831150836 21 355 1.6 6.4 0.00 0.08 0.03 75 1020.5
20260831150740 21 260 1.6 6.4 0.00 0.08 0.03 74 1020.5
20260831150704 21 260 1.6 9.7 0.00 0.08 0.03 73 1020.5
20260831150513 21 61 3.2 12.9 0.00 0.08 0.03 73 1020.5
20260831150427 21 65 4.8 14.5 0.00 0.08 0.03 73 1020.5
20260831150236 21 68 4.8 14.5 0.00 0.08 0.03 73 1020.5
20260831150151 21 96 3.2 14.5 0.00 0.08 0.03 73 1020.5
20260831150020 21 5 3.2 14.5 0.00 0.08 0.03 72 1020.5
20260831145942 22 296 4.8 14.5 0.00 0.08 0.03 73 1020.4
20260831145723 22 317 6.4 14.5 0.00 0.08 0.03 72 1020.5
20260831145654 22 312 6.4 14.5 0.00 0.08 0.03 74 1020.5
20260831145539 22 321 3.2 14.5 0.00 0.08 0.03 74 1020.5
20260831145504 22 153 3.2 14.5 0.00 0.08 0.03 74 1020.5
20260831145313 22 355 3.2 14.5 0.00 0.08 0.03 75 1020.6
20260831145228 22 311 4.8 14.5 0.00 0.08 0.03 74 1020.6
20260831145037 22 304 6.4 14.5 0.00 0.08 0.03 74 1020.5
20260831144931 22 281 4.8 14.5 0.00 0.08 0.03 73 1020.5
20260831144825 22 324 3.2 14.5 0.00 0.08 0.03 75 1020.5
20260831144746 22 271 1.6 14.5 0.00 0.08 0.03 75 1020.6
20260831144616 22 209 3.2 14.5 0.00 0.08 0.03 74 1020.6
20260831144529 22 198 3.2 14.5 0.00 0.08 0.03 73 1020.6
20260831144359 22 161 4.8 14.5 0.00 0.08 0.03 74 1020.6
20260831144325 22 110 6.4 14.5 0.00 0.08 0.03 74 1020.6
20260831144127 21 296 6.4 14.5 0.00 0.08 0.03 74 1020.7
20260831144030 21 360 3.2 9.7 0.00 0.08 0.03 73 1020.7
20260831143941 21 78 1.6 8.0 0.00 0.08 0.03 73 1020.7
20260831143902 21 240 3.2 8.0 0.00 0.08 0.03 73 1020.7
20260831143725 21 305 3.2 8.0 0.00 0.08 0.03 75 1020.7
20260831143646 21 309 3.2 8.0 0.00 0.08 0.03 73 1020.6
20260831143608 21 302 1.6 6.4 0.00 0.08 0.03 73 1020.6
20260831143511 21 256 1.6 6.4 0.00 0.08 0.03 73 1020.6
20260831143432 21 115 1.6 6.4 0.00 0.08 0.03 73 1020.6
20260831143306 21 186 1.6 6.4 0.00 0.08 0.03 75 1020.7
20260831143221 21 126 3.2 6.4 0.00 0.08 0.03 75 1020.7
20260831143032 21 142 3.2 8.0 0.00 0.08 0.03 75 1020.7
20260831142946 21 111 3.2 8.0 0.00 0.08 0.03 74 1020.7
20260831142754 21 155 1.6 8.0 0.00 0.08 0.03 74 1020.7
20260831142715 21 156 3.2 8.0 0.00 0.08 0.03 74 1020.7
20260831142546 21 210 3.2 8.0 0.00 0.08 0.03 73 1020.7
20260831142440 21 283 3.2 8.0 0.00 0.08 0.03 73 1020.7
20260831142236 21 226 3.2 8.0 0.00 0.08 0.03 75 1020.7
20260831142158 21 155 3.2 6.4 0.00 0.08 0.03 75 1020.7
20260831142102 21 136 1.6 6.4 0.00 0.08 0.03 75 1020.7
20260831142024 21 155 1.6 6.4 0.00 0.08 0.03 75 1020.7
20260831141827 21 157 1.6 6.4 0.00 0.08 0.03 78 1020.8
20260831141728 21 140 3.2 6.4 0.00 0.08 0.03 77 1020.8
20260831141631 21 111 3.2 6.4 0.00 0.08 0.03 75 1020.8
20260831141552 21 101 3.2 6.4 0.00 0.08 0.03 75 1020.8
20260831141515 21 91 3.2 6.4 0.00 0.08 0.03 75 1020.8